K5VW Weather Reports


time (UTC)temp
C
wind
direction
speed
KPH
gust
KPH
rain 1hr
cm
rain 24hr
cm
rain mn
cm
humidity
%
barometer
mb
20260507151545 12 327 1.6 11.3 0.00 0.00 0.00 58 1017.2
20260507151449 12 26 1.6 11.3 0.00 0.00 0.00 58 1017.2
20260507151354 12 23 1.6 11.3 0.00 0.00 0.00 58 1017.1
20260507151251 12 355 1.6 11.3 0.00 0.00 0.00 58 1017.1
20260507151144 12 102 1.6 8.0 0.00 0.00 0.00 59 1017.2
20260507151039 11 53 1.6 9.7 0.00 0.00 0.00 59 1017.1
20260507150940 11 88 3.2 9.7 0.00 0.00 0.00 59 1017.1
20260507150842 11 19 3.2 9.7 0.00 0.00 0.00 59 1017.1
20260507150735 11 24 3.2 9.7 0.00 0.00 0.00 59 1017.0
20260507150636 11 311 3.2 9.7 0.00 0.00 0.00 60 1017.0
20260507150534 11 55 3.2 9.7 0.00 0.00 0.00 60 1017.0
20260507150434 11 76 3.2 9.7 0.00 0.00 0.00 60 1017.0
20260507150329 11 61 3.2 9.7 0.00 0.00 0.00 61 1017.0
20260507150225 11 77 4.8 9.7 0.00 0.00 0.00 60 1016.9
20260507150129 11 22 3.2 9.7 0.00 0.00 0.00 59 1016.9
20260507150024 11 330 3.2 9.7 0.00 0.00 0.00 59 1016.9
20260507145917 11 321 3.2 11.3 0.00 0.00 0.00 59 1016.9
20260507145827 11 44 3.2 11.3 0.00 0.00 0.00 59 1016.9
20260507145709 11 329 3.2 11.3 0.00 0.00 0.00 60 1017.1
20260507145606 11 338 3.2 11.3 0.00 0.00 0.00 60 1017.1
20260507145508 11 29 3.2 11.3 0.00 0.00 0.00 60 1017.1
20260507145417 11 68 3.2 11.3 0.00 0.00 0.00 60 1017.1
20260507145309 11 63 1.6 11.3 0.00 0.00 0.00 61 1017.1
20260507145210 11 53 3.2 11.3 0.00 0.00 0.00 61 1017.1
20260507145106 11 338 3.2 11.3 0.00 0.00 0.00 61 1017.1
20260507145009 11 324 3.2 11.3 0.00 0.00 0.00 61 1017.1
20260507144909 11 30 3.2 11.3 0.00 0.00 0.00 61 1017.1
20260507144818 11 355 3.2 11.3 0.00 0.00 0.00 61 1017.0
20260507144713 11 344 3.2 11.3 0.00 0.00 0.00 62 1017.1
20260507144606 11 51 3.2 11.3 0.00 0.00 0.00 62 1017.0
20260507144501 11 346 3.2 11.3 0.00 0.00 0.00 62 1017.0
20260507144408 11 69 3.2 11.3 0.00 0.00 0.00 62 1016.9
20260507144257 10 311 3.2 11.3 0.00 0.00 0.00 62 1016.9
20260507144201 10 331 3.2 11.3 0.00 0.00 0.00 62 1017.2
20260507144050 10 329 3.2 11.3 0.00 0.00 0.00 62 1017.2
20260507143953 10 325 3.2 11.3 0.00 0.00 0.00 62 1017.2
20260507143849 10 314 3.2 11.3 0.00 0.00 0.00 62 1017.2
20260507143757 10 20 3.2 11.3 0.00 0.00 0.00 62 1017.2
20260507143654 10 338 1.6 11.3 0.00 0.00 0.00 62 1017.2
20260507143549 10 326 1.6 11.3 0.00 0.00 0.00 62 1017.2
20260507143447 10 328 1.6 11.3 0.00 0.00 0.00 62 1017.2
20260507143351 10 330 1.6 11.3 0.00 0.00 0.00 62 1017.2
20260507143243 10 15 1.6 11.3 0.00 0.00 0.00 62 1017.2
20260507143137 10 23 1.6 11.3 0.00 0.00 0.00 62 1017.2
20260507143042 10 36 1.6 11.3 0.00 0.00 0.00 62 1017.2
20260507142939 10 37 1.6 11.3 0.00 0.00 0.00 63 1017.2
20260507142842 10 15 1.6 11.3 0.00 0.00 0.00 63 1017.1
20260507142739 10 350 1.6 11.3 0.00 0.00 0.00 63 1017.1
20260507142638 10 68 1.6 12.9 0.00 0.00 0.00 63 1017.1
20260507142541 10 67 1.6 12.9 0.00 0.00 0.00 64 1017.1
20260507142438 10 319 1.6 12.9 0.00 0.00 0.00 64 1017.1
20260507142339 10 14 3.2 12.9 0.00 0.00 0.00 63 1017.0
20260507142239 10 115 3.2 12.9 0.00 0.00 0.00 63 1017.0
20260507142138 10 30 3.2 12.9 0.00 0.00 0.00 63 1017.0
20260507142038 10 56 3.2 12.9 0.00 0.00 0.00 63 1017.0
20260507141939 10 13 4.8 12.9 0.00 0.00 0.00 63 1017.0
20260507141840 10 309 4.8 14.5 0.00 0.00 0.00 63 1017.0
20260507141726 10 22 4.8 14.5 0.00 0.00 0.00 63 1017.0
20260507141624 10 66 6.4 14.5 0.00 0.00 0.00 63 1017.0
20260507141519 10 22 6.4 14.5 0.00 0.00 0.00 63 1017.0
20260507141419 10 37 6.4 14.5 0.00 0.00 0.00 63 1017.0
20260507141327 10 42 6.4 14.5 0.00 0.00 0.00 63 1017.0
20260507141214 10 348 6.4 14.5 0.00 0.00 0.00 64 1016.5
20260507141114 10 49 6.4 14.5 0.00 0.00 0.00 64 1016.4
20260507141014 10 52 8.0 14.5 0.00 0.00 0.00 63 1016.4
20260507140912 10 320 6.4 14.5 0.00 0.00 0.00 63 1016.4
20260507140811 10 319 6.4 14.5 0.00 0.00 0.00 63 1016.5
20260507140712 10 345 6.4 14.5 0.00 0.00 0.00 64 1016.4
20260507140616 10 98 4.8 14.5 0.00 0.00 0.00 64 1016.4
20260507140508 10 319 6.4 14.5 0.00 0.00 0.00 64 1016.4
20260507140412 10 47 6.4 14.5 0.00 0.00 0.00 64 1016.4
20260507140304 10 65 6.4 14.5 0.00 0.00 0.00 64 1016.4
20260507140153 10 342 6.4 14.5 0.00 0.00 0.00 64 1016.4
20260507140055 10 325 6.4 14.5 0.00 0.00 0.00 64 1016.4
20260507140000 10 346 6.4 14.5 0.00 0.00 0.00 64 1016.4
20260507135855 10 316 6.4 14.5 0.00 0.00 0.00 64 1016.4
20260507135753 10 65 6.4 14.5 0.00 0.00 0.00 65 1016.3
20260507135652 10 300 6.4 17.7 0.00 0.00 0.00 65 1016.2
20260507135540 10 355 8.0 17.7 0.00 0.00 0.00 64 1016.2
20260507135440 10 315 8.0 17.7 0.00 0.00 0.00 64 1016.2
20260507135336 10 331 8.0 17.7 0.00 0.00 0.00 65 1016.2
20260507135244 10 313 8.0 17.7 0.00 0.00 0.00 65 1016.2
20260507135142 10 69 6.4 17.7 0.00 0.00 0.00 65 1016.2
20260507135040 10 330 8.0 17.7 0.00 0.00 0.00 65 1016.2
20260507134936 10 320 6.4 17.7 0.00 0.00 0.00 65 1016.2
20260507134835 10 327 6.4 17.7 0.00 0.00 0.00 65 1016.2
20260507134731 10 48 6.4 17.7 0.00 0.00 0.00 65 1016.2
20260507134632 10 332 4.8 16.1 0.00 0.00 0.00 65 1016.2
20260507134536 10 319 4.8 16.1 0.00 0.00 0.00 65 1016.2
20260507134437 10 336 4.8 16.1 0.00 0.00 0.00 65 1016.2
20260507134329 10 333 4.8 14.5 0.00 0.00 0.00 65 1016.2
20260507134238 10 330 4.8 14.5 0.00 0.00 0.00 65 1016.2
20260507134129 10 65 4.8 14.5 0.00 0.00 0.00 65 1016.2
20260507134026 10 0 4.8 14.5 0.00 0.00 0.00 65 1016.2
20260507133925 10 40 4.8 14.5 0.00 0.00 0.00 65 1016.2
20260507133824 10 30 4.8 14.5 0.00 0.00 0.00 65 1016.2
20260507133717 10 305 6.4 14.5 0.00 0.00 0.00 65 1016.2
20260507133614 10 50 6.4 14.5 0.00 0.00 0.00 65 1016.2
20260507133518 10 11 6.4 14.5 0.00 0.00 0.00 65 1016.2
20260507133420 9 80 4.8 14.5 0.00 0.00 0.00 65 1016.1
20260507133314 9 324 6.4 14.5 0.00 0.00 0.00 65 1016.1
20260507133218 9 69 6.4 14.5 0.00 0.00 0.00 65 1016.1
20260507133111 9 24 6.4 17.7 0.00 0.00 0.00 65 1016.1
20260507133012 9 77 8.0 17.7 0.00 0.00 0.00 65 1016.1
20260507132917 9 32 8.0 19.3 0.00 0.00 0.00 65 1016.1
20260507132758 9 338 8.0 19.3 0.00 0.00 0.00 65 1016.1
20260507132657 9 342 6.4 19.3 0.00 0.00 0.00 65 1016.3
20260507132555 9 319 6.4 19.3 0.00 0.00 0.00 66 1016.3
20260507132500 9 324 6.4 19.3 0.00 0.00 0.00 66 1016.3
20260507132351 9 337 6.4 19.3 0.00 0.00 0.00 65 1016.3
20260507132257 9 18 6.4 19.3 0.00 0.00 0.00 65 1016.3
20260507132147 9 355 6.4 19.3 0.00 0.00 0.00 65 1016.3
20260507132048 9 340 6.4 19.3 0.00 0.00 0.00 65 1016.3
20260507131942 9 328 6.4 19.3 0.00 0.00 0.00 65 1016.3
20260507131847 9 315 6.4 16.1 0.00 0.00 0.00 65 1016.3
20260507131747 9 86 6.4 16.1 0.00 0.00 0.00 65 1016.3
20260507131643 9 53 6.4 16.1 0.00 0.00 0.00 65 1016.3
20260507131554 9 28 6.4 16.1 0.00 0.00 0.00 65 1016.3
20260507131513 9 313 6.4 16.1 0.00 0.00 0.00 65 1016.3
20260507131347 9 337 6.4 16.1 0.00 0.00 0.00 65 1016.3
20260507131240 9 82 6.4 17.7 0.00 0.00 0.00 65 1016.3
20260507131146 9 46 6.4 17.7 0.00 0.00 0.00 65 1015.5
20260507131035 9 57 8.0 17.7 0.00 0.00 0.00 65 1015.5
20260507130938 9 54 8.0 17.7 0.00 0.00 0.00 65 1015.5
20260507130841 9 331 8.0 17.7 0.00 0.00 0.00 65 1015.5
20260507130741 9 67 9.7 17.7 0.00 0.00 0.00 65 1015.5
20260507130634 9 324 9.7 17.7 0.00 0.00 0.00 65 1015.5
20260507130541 9 15 9.7 17.7 0.00 0.00 0.00 65 1015.5
20260507130436 9 313 9.7 17.7 0.00 0.00 0.00 65 1015.5
20260507130337 9 350 9.7 17.7 0.00 0.00 0.00 65 1015.5
20260507130233 9 340 9.7 17.7 0.00 0.00 0.00 65 1015.5
20260507130133 9 349 8.0 17.7 0.00 0.00 0.00 65 1015.5
20260507130031 9 322 8.0 16.1 0.00 0.00 0.00 66 1015.5
20260507125935 9 342 6.4 16.1 0.00 0.00 0.00 66 1015.5
20260507125835 9 324 6.4 16.1 0.00 0.00 0.00 66 1015.5
20260507125736 9 342 6.4 16.1 0.00 0.00 0.00 66 1015.3
20260507125631 9 327 6.4 17.7 0.00 0.00 0.00 66 1015.3
20260507125531 9 299 6.4 17.7 0.00 0.00 0.00 66 1015.3
20260507125430 9 42 6.4 17.7 0.00 0.00 0.00 66 1015.3
20260507125326 9 320 6.4 19.3 0.00 0.00 0.00 66 1015.3
20260507125225 9 340 6.4 19.3 0.00 0.00 0.00 66 1015.3
20260507125133 9 23 6.4 19.3 0.00 0.00 0.00 66 1015.3
20260507125025 9 38 8.0 19.3 0.00 0.00 0.00 66 1015.3
20260507124920 9 40 8.0 19.3 0.00 0.00 0.00 65 1015.3
20260507124828 9 331 8.0 19.3 0.00 0.00 0.00 65 1015.3
20260507124716 9 312 8.0 19.3 0.00 0.00 0.00 65 1015.3
20260507124625 9 313 8.0 19.3 0.00 0.00 0.00 66 1015.3
20260507124517 9 279 8.0 19.3 0.00 0.00 0.00 66 1015.3
20260507124411 9 345 8.0 19.3 0.00 0.00 0.00 66 1015.3
20260507124316 9 67 8.0 17.7 0.00 0.00 0.00 66 1015.3
20260507124214 9 326 9.7 19.3 0.00 0.00 0.00 65 1015.2
20260507124110 9 337 9.7 19.3 0.00 0.00 0.00 65 1015.2
20260507124002 9 301 8.0 19.3 0.00 0.00 0.00 65 1015.2
20260507123901 9 55 8.0 19.3 0.00 0.00 0.00 65 1015.2
20260507123805 9 334 8.0 19.3 0.00 0.00 0.00 66 1015.2
20260507123655 9 324 9.7 19.3 0.00 0.00 0.00 65 1015.2
20260507123548 9 336 9.7 19.3 0.00 0.00 0.00 65 1015.2
20260507123448 9 330 9.7 19.3 0.00 0.00 0.00 65 1015.2
20260507123415 9 331 9.7 19.3 0.00 0.00 0.00 65 1015.2
20260507123245 9 317 9.7 17.7 0.00 0.00 0.00 65 1015.2
20260507123146 9 346 9.7 17.7 0.00 0.00 0.00 65 1015.2
20260507123041 9 12 9.7 17.7 0.00 0.00 0.00 65 1015.2
20260507122940 9 22 9.7 17.7 0.00 0.00 0.00 65 1015.2
20260507122842 9 322 9.7 17.7 0.00 0.00 0.00 65 1015.2
20260507122746 9 282 11.3 17.7 0.00 0.00 0.00 65 1015.2
20260507122638 9 329 11.3 17.7 0.00 0.00 0.00 65 1015.2
20260507122538 9 27 9.7 17.7 0.00 0.00 0.00 65 1015.2
20260507122439 9 344 11.3 17.7 0.00 0.00 0.00 65 1015.2
20260507122411 9 324 11.3 17.7 0.00 0.00 0.00 65 1015.2
20260507122242 9 350 11.3 17.7 0.00 0.00 0.00 65 1015.2
20260507122137 9 319 11.3 17.7 0.00 0.00 0.00 65 1015.2
20260507122044 9 340 11.3 17.7 0.00 0.00 0.00 65 1015.2
20260507121938 9 284 11.3 17.7 0.00 0.00 0.00 65 1015.2
20260507121841 9 313 11.3 17.7 0.00 0.00 0.00 65 1015.2
20260507121741 9 319 9.7 17.7 0.00 0.00 0.00 65 1015.2
20260507121633 9 24 9.7 17.7 0.00 0.00 0.00 65 1015.2
20260507121535 9 275 9.7 17.7 0.00 0.00 0.00 65 1015.2
20260507121428 9 327 9.7 16.1 0.00 0.00 0.00 65 1015.2
20260507121332 9 332 9.7 17.7 0.00 0.00 0.00 65 1015.2
20260507121230 9 317 9.7 17.7 0.00 0.00 0.00 65 1014.8
20260507121131 9 255 9.7 17.7 0.00 0.00 0.00 65 1014.8
20260507121024 9 313 9.7 17.7 0.00 0.00 0.00 65 1014.8
20260507120924 9 322 9.7 17.7 0.00 0.00 0.00 66 1014.8
20260507120826 9 329 9.7 17.7 0.00 0.00 0.00 65 1014.8
20260507120725 9 333 9.7 17.7 0.00 0.00 0.00 65 1014.8
20260507120620 9 330 9.7 17.7 0.00 0.00 0.00 65 1014.8
20260507120510 9 53 9.7 17.7 0.00 0.00 0.00 66 1014.8
20260507120411 9 333 9.7 17.7 0.00 0.00 0.00 65 1014.8
20260507120308 9 327 9.7 17.7 0.00 0.00 0.00 66 1014.8
20260507120213 9 50 9.7 17.7 0.00 0.00 0.00 65 1014.8
20260507120107 9 321 9.7 17.7 0.00 0.00 0.00 66 1014.8
20260507120000 9 299 9.7 17.7 0.00 0.00 0.00 66 1014.8
20260507115901 9 336 9.7 17.7 0.00 0.00 0.00 66 1014.7
20260507115758 9 327 9.7 17.7 0.00 0.00 0.00 66 1014.7
20260507115704 9 29 9.7 17.7 0.00 0.00 0.00 66 1014.7
20260507115552 9 333 8.0 16.1 0.00 0.00 0.00 66 1014.7
20260507115457 9 331 8.0 16.1 0.00 0.00 0.00 66 1014.7
20260507115359 9 11 8.0 16.1 0.00 0.00 0.00 66 1014.7
20260507115251 9 311 8.0 16.1 0.00 0.00 0.00 67 1014.7
20260507115154 9 345 8.0 16.1 0.00 0.00 0.00 67 1014.7
20260507115044 9 347 8.0 16.1 0.00 0.00 0.00 67 1014.5
20260507114946 9 44 8.0 16.1 0.00 0.00 0.00 67 1014.5
20260507114912 9 333 8.0 16.1 0.00 0.00 0.00 67 1014.5
20260507114826 9 298 8.0 16.1 0.00 0.00 0.00 67 1014.5
20260507114707 9 340 8.0 16.1 0.00 0.00 0.00 67 1014.5
20260507114557 9 34 8.0 16.1 0.00 0.00 0.00 67 1014.5
20260507114437 9 319 8.0 16.1 0.00 0.00 0.00 67 1014.5
20260507114357 9 333 8.0 16.1 0.00 0.00 0.00 67 1014.5
20260507114257 9 309 8.0 16.1 0.00 0.00 0.00 67 1014.5
20260507114204 9 275 8.0 16.1 0.00 0.00 0.00 67 1014.9
20260507114054 9 308 8.0 16.1 0.00 0.00 0.00 68 1014.9
20260507113944 9 320 6.4 16.1 0.00 0.00 0.00 68 1014.9
20260507113833 9 328 6.4 16.1 0.00 0.00 0.00 68 1014.9
20260507113733 8 323 6.4 16.1 0.00 0.00 0.00 68 1014.8
20260507113632 8 331 6.4 16.1 0.00 0.00 0.00 68 1014.8
20260507113531 8 327 6.4 16.1 0.00 0.00 0.00 68 1014.8
20260507113437 8 297 4.8 16.1 0.00 0.00 0.00 68 1014.8
20260507113329 8 321 4.8 16.1 0.00 0.00 0.00 68 1014.8
20260507113230 8 317 4.8 14.5 0.00 0.00 0.00 68 1014.8
20260507113129 8 337 4.8 14.5 0.00 0.00 0.00 69 1014.8
20260507113024 8 314 4.8 14.5 0.00 0.00 0.00 68 1014.8
20260507112923 8 355 4.8 14.5 0.00 0.00 0.00 69 1014.8
20260507112816 8 294 4.8 14.5 0.00 0.00 0.00 69 1014.8
20260507112711 8 317 4.8 14.5 0.00 0.00 0.00 69 1014.7
20260507112615 8 323 4.8 14.5 0.00 0.00 0.00 69 1014.7
20260507112509 8 5 4.8 14.5 0.00 0.00 0.00 69 1014.7
20260507112415 8 335 6.4 14.5 0.00 0.00 0.00 69 1014.7
20260507112257 8 343 4.8 12.9 0.00 0.00 0.00 69 1014.7
20260507112153 8 309 4.8 12.9 0.00 0.00 0.00 69 1014.7
20260507112053 8 325 6.4 12.9 0.00 0.00 0.00 69 1014.7
20260507111954 8 347 6.4 12.9 0.00 0.00 0.00 69 1014.7
20260507111856 8 317 6.4 12.9 0.00 0.00 0.00 69 1014.7
20260507111755 8 308 6.4 12.9 0.00 0.00 0.00 69 1014.7
20260507111656 8 317 6.4 12.9 0.00 0.00 0.00 69 1014.7
20260507111550 8 327 6.4 12.9 0.00 0.00 0.00 69 1014.7
20260507111450 8 320 6.4 12.9 0.00 0.00 0.00 69 1014.7
20260507111351 8 311 6.4 12.9 0.00 0.00 0.00 69 1014.7
20260507111244 8 309 6.4 12.9 0.00 0.00 0.00 69 1014.7
20260507111146 8 317 6.4 12.9 0.00 0.00 0.00 69 1014.3
20260507111052 8 314 6.4 12.9 0.00 0.00 0.00 69 1014.3
20260507110942 8 279 6.4 16.1 0.00 0.00 0.00 69 1014.3
20260507110846 8 284 6.4 16.1 0.00 0.00 0.00 69 1014.3
20260507110745 8 319 6.4 16.1 0.00 0.00 0.00 69 1014.3
20260507110646 8 300 6.4 16.1 0.00 0.00 0.00 69 1014.3
20260507110538 8 327 6.4 16.1 0.00 0.00 0.00 68 1014.3
20260507110440 8 316 6.4 16.1 0.00 0.00 0.00 69 1014.3
20260507110336 8 316 8.0 16.1 0.00 0.00 0.00 69 1014.3
20260507110237 8 330 8.0 16.1 0.00 0.00 0.00 69 1014.3
20260507110137 8 0 8.0 19.3 0.00 0.00 0.00 68 1014.3
20260507110025 8 297 8.0 19.3 0.00 0.00 0.00 68 1014.3
20260507105926 8 329 8.0 19.3 0.00 0.00 0.00 68 1014.3
20260507105829 8 304 8.0 19.3 0.00 0.00 0.00 68 1014.4
20260507105726 8 311 8.0 19.3 0.00 0.00 0.00 68 1014.2
20260507105629 8 334 8.0 19.3 0.00 0.00 0.00 68 1014.2
20260507105521 8 25 8.0 19.3 0.00 0.00 0.00 68 1014.2
20260507105432 8 342 8.0 19.3 0.00 0.00 0.00 68 1014.2
20260507105322 8 321 9.7 19.3 0.00 0.00 0.00 68 1014.2
20260507105216 8 322 9.7 17.7 0.00 0.00 0.00 68 1014.2
20260507105110 8 277 9.7 19.3 0.00 0.00 0.00 68 1014.2
20260507105007 8 281 9.7 19.3 0.00 0.00 0.00 68 1014.2
20260507104900 9 338 9.7 19.3 0.00 0.00 0.00 68 1014.2
20260507104800 9 317 9.7 19.3 0.00 0.00 0.00 68 1014.2
20260507104701 9 348 9.7 19.3 0.00 0.00 0.00 68 1014.2
20260507104602 9 346 9.7 19.3 0.00 0.00 0.00 67 1014.2
20260507104449 9 334 9.7 19.3 0.00 0.00 0.00 67 1014.2
20260507104353 9 355 9.7 19.3 0.00 0.00 0.00 67 1014.2
20260507104246 9 323 11.3 19.3 0.00 0.00 0.00 67 1014.2
20260507104149 9 321 9.7 19.3 0.00 0.00 0.00 67 1014.0
20260507104048 9 318 9.7 19.3 0.00 0.00 0.00 67 1014.0
20260507103951 9 344 9.7 19.3 0.00 0.00 0.00 67 1014.0
20260507103844 9 348 9.7 20.9 0.00 0.00 0.00 67 1014.0
20260507103746 9 307 11.3 20.9 0.00 0.00 0.00 67 1014.0
20260507103639 9 331 11.3 20.9 0.00 0.00 0.00 67 1014.0
20260507103541 9 17 11.3 20.9 0.00 0.00 0.00 67 1014.0
20260507103435 9 269 11.3 20.9 0.00 0.00 0.00 67 1014.0
20260507103342 9 331 11.3 20.9 0.00 0.00 0.00 67 1014.0
20260507103244 9 336 11.3 20.9 0.00 0.00 0.00 67 1014.0
20260507103139 9 49 11.3 20.9 0.00 0.00 0.00 67 1014.0
20260507103035 9 333 11.3 20.9 0.00 0.00 0.00 67 1014.1
20260507102934 9 311 11.3 20.9 0.00 0.00 0.00 67 1014.1
20260507102837 9 307 11.3 20.9 0.00 0.00 0.00 67 1014.1
20260507102729 9 324 11.3 20.9 0.00 0.00 0.00 66 1014.0
20260507102633 9 330 11.3 20.9 0.00 0.00 0.00 66 1014.0
20260507102527 9 328 11.3 20.9 0.00 0.00 0.00 66 1014.0
20260507102429 9 15 11.3 20.9 0.00 0.00 0.00 66 1014.0
20260507102329 9 13 11.3 20.9 0.00 0.00 0.00 66 1014.0
20260507102223 9 303 11.3 20.9 0.00 0.00 0.00 66 1014.0
20260507102119 9 302 11.3 20.9 0.00 0.00 0.00 66 1014.0
20260507102013 9 24 11.3 20.9 0.00 0.00 0.00 66 1014.0
20260507101919 9 325 11.3 20.9 0.00 0.00 0.00 66 1014.0
20260507101817 9 315 11.3 20.9 0.00 0.00 0.00 66 1014.0
20260507101708 9 346 11.3 20.9 0.00 0.00 0.00 66 1014.0
20260507101610 9 306 11.3 20.9 0.00 0.00 0.00 66 1014.0
20260507101509 9 309 11.3 20.9 0.00 0.00 0.00 66 1014.0
20260507101409 9 299 9.7 20.9 0.00 0.00 0.00 66 1014.0
20260507101309 9 317 9.7 19.3 0.00 0.00 0.00 66 1014.0
20260507101209 9 295 9.7 19.3 0.00 0.00 0.00 66 1014.0
20260507101121 9 303 11.3 19.3 0.00 0.00 0.00 66 1014.0
20260507101015 9 319 11.3 19.3 0.00 0.00 0.00 66 1014.0
20260507100907 9 325 11.3 25.7 0.00 0.00 0.00 66 1014.0
20260507100804 9 307 12.9 25.7 0.00 0.00 0.00 66 1014.0
20260507100659 9 304 12.9 25.7 0.00 0.00 0.00 66 1014.0
20260507100558 9 332 12.9 25.7 0.00 0.00 0.00 66 1014.0
20260507100501 9 252 12.9 25.7 0.00 0.00 0.00 66 1014.0
20260507100358 9 323 12.9 25.7 0.00 0.00 0.00 66 1014.0
20260507100253 9 313 14.5 25.7 0.00 0.00 0.00 66 1014.1
20260507100139 9 309 14.5 25.7 0.00 0.00 0.00 66 1014.1
20260507100039 9 289 14.5 25.7 0.00 0.00 0.00 66 1014.1
20260507095932 9 291 12.9 22.5 0.00 0.00 0.00 66 1014.1
20260507095830 9 261 12.9 22.5 0.00 0.00 0.00 66 1014.1
20260507095727 9 9 12.9 22.5 0.00 0.00 0.00 66 1013.5
20260507095630 9 290 12.9 22.5 0.00 0.00 0.00 66 1013.5
20260507095533 9 346 14.5 22.5 0.00 0.00 0.00 66 1013.5
20260507095422 9 297 12.9 22.5 0.00 0.00 0.00 66 1013.5
20260507095313 9 346 12.9 22.5 0.00 0.00 0.00 66 1013.5
20260507095213 9 303 12.9 22.5 0.00 0.00 0.00 66 1013.5
20260507095117 9 286 12.9 22.5 0.00 0.00 0.00 66 1013.5
20260507095010 9 309 11.3 22.5 0.00 0.00 0.00 66 1013.5
20260507094910 9 321 11.3 22.5 0.00 0.00 0.00 66 1013.5
20260507094810 9 284 11.3 22.5 0.00 0.00 0.00 66 1013.5
20260507094702 9 331 11.3 22.5 0.00 0.00 0.00 66 1013.5
20260507094557 9 306 11.3 20.9 0.00 0.00 0.00 66 1013.5
20260507094455 9 329 11.3 20.9 0.00 0.00 0.00 66 1013.5
20260507094351 9 328 11.3 22.5 0.00 0.00 0.00 66 1013.5
20260507094248 9 338 11.3 22.5 0.00 0.00 0.00 66 1013.5
20260507094146 9 296 11.3 22.5 0.00 0.00 0.00 66 1013.4
20260507094049 9 344 11.3 22.5 0.00 0.00 0.00 66 1013.4
20260507093952 9 303 12.9 22.5 0.00 0.00 0.00 66 1013.4
20260507093845 10 322 12.9 22.5 0.00 0.00 0.00 65 1013.4
20260507093744 9 302 12.9 22.5 0.00 0.00 0.00 65 1013.4
20260507093644 9 346 12.9 22.5 0.00 0.00 0.00 65 1013.4
20260507093538 10 302 11.3 22.5 0.00 0.00 0.00 65 1013.4
20260507093439 10 323 11.3 22.5 0.00 0.00 0.00 65 1013.4
20260507093338 10 26 11.3 19.3 0.00 0.00 0.00 65 1013.4
20260507093236 10 319 11.3 19.3 0.00 0.00 0.00 65 1013.4
20260507093137 10 263 11.3 19.3 0.00 0.00 0.00 65 1013.4
20260507093038 10 297 11.3 19.3 0.00 0.00 0.00 65 1013.4
20260507092945 10 355 11.3 19.3 0.00 0.00 0.00 65 1013.4
20260507092836 10 320 11.3 19.3 0.00 0.00 0.00 65 1013.4
20260507092736 10 287 11.3 19.3 0.00 0.00 0.00 65 1013.4
20260507092633 10 344 11.3 19.3 0.00 0.00 0.00 65 1013.3
20260507092535 10 284 11.3 19.3 0.00 0.00 0.00 65 1013.3
20260507092429 10 331 11.3 17.7 0.00 0.00 0.00 65 1013.3
20260507092326 10 24 11.3 17.7 0.00 0.00 0.00 65 1013.4
20260507092226 10 24 12.9 25.7 0.00 0.00 0.00 65 1013.4
20260507092126 10 296 12.9 25.7 0.00 0.00 0.00 65 1013.4
20260507092020 10 327 12.9 25.7 0.00 0.00 0.00 65 1013.4
20260507091922 10 319 12.9 25.7 0.00 0.00 0.00 65 1013.4
20260507091815 10 283 12.9 25.7 0.00 0.00 0.00 65 1013.4
20260507091710 10 310 12.9 25.7 0.00 0.00 0.00 65 1013.4
20260507091611 10 331 12.9 25.7 0.00 0.00 0.00 65 1013.4
20260507091510 10 342 12.9 25.7 0.00 0.00 0.00 65 1013.4
20260507091412 10 305 12.9 25.7 0.00 0.00 0.00 65 1013.4
20260507091309 10 297 12.9 25.7 0.00 0.00 0.00 65 1013.4
20260507091207 10 309 12.9 20.9 0.00 0.00 0.00 65 1013.4
20260507091108 10 329 12.9 20.9 0.00 0.00 0.00 65 1013.5
20260507091014 10 288 12.9 20.9 0.00 0.00 0.00 65 1013.5
20260507090907 10 308 12.9 20.9 0.00 0.00 0.00 64 1013.5
20260507090814 10 288 12.9 20.9 0.00 0.00 0.00 64 1013.5
20260507090709 10 320 12.9 20.9 0.00 0.00 0.00 64 1013.5
20260507090604 10 327 12.9 22.5 0.00 0.00 0.00 64 1013.5
20260507090504 10 334 12.9 22.5 0.00 0.00 0.00 64 1013.5
20260507090359 10 307 12.9 22.5 0.00 0.00 0.00 64 1013.5
20260507090253 10 319 12.9 22.5 0.00 0.00 0.00 64 1013.5
20260507090152 10 287 12.9 22.5 0.00 0.00 0.00 64 1013.5
20260507090056 10 293 12.9 22.5 0.00 0.00 0.00 64 1013.5
20260507085945 10 289 12.9 25.7 0.00 0.00 0.00 64 1013.5
20260507085838 10 315 12.9 25.7 0.00 0.00 0.00 64 1013.5
20260507085735 10 320 12.9 25.7 0.00 0.00 0.00 64 1013.5
20260507085637 10 334 12.9 25.7 0.00 0.00 0.00 64 1013.4
20260507085540 10 329 12.9 25.7 0.00 0.00 0.00 64 1013.5
20260507085437 10 315 12.9 25.7 0.00 0.00 0.00 64 1013.4
20260507085336 10 303 12.9 25.7 0.00 0.00 0.00 64 1013.5
20260507085236 10 288 12.9 25.7 0.00 0.00 0.00 64 1013.5
20260507085134 10 315 12.9 25.7 0.00 0.00 0.00 64 1013.5
20260507085030 10 327 12.9 25.7 0.00 0.00 0.00 64 1013.5
20260507084930 10 305 14.5 25.7 0.00 0.00 0.00 64 1013.5
20260507084830 10 315 14.5 24.1 0.00 0.00 0.00 64 1013.5
20260507084728 10 306 14.5 24.1 0.00 0.00 0.00 64 1013.5
20260507084627 10 302 14.5 24.1 0.00 0.00 0.00 64 1013.5
20260507084528 10 274 14.5 24.1 0.00 0.00 0.00 63 1013.5
20260507084423 10 319 14.5 24.1 0.00 0.00 0.00 63 1013.5
20260507084326 10 339 14.5 24.1 0.00 0.00 0.00 63 1013.5
20260507084219 10 313 14.5 24.1 0.00 0.00 0.00 63 1013.4
20260507084119 10 311 12.9 24.1 0.00 0.00 0.00 63 1013.4
20260507084017 10 285 12.9 24.1 0.00 0.00 0.00 63 1013.4
20260507083943 10 329 12.9 24.1 0.00 0.00 0.00 63 1013.4
20260507083811 10 332 12.9 22.5 0.00 0.00 0.00 63 1013.4
20260507083711 10 300 12.9 22.5 0.00 0.00 0.00 63 1013.4
20260507083606 10 299 14.5 24.1 0.00 0.00 0.00 63 1013.4
20260507083508 10 335 14.5 24.1 0.00 0.00 0.00 63 1013.4
20260507083411 10 239 14.5 24.1 0.00 0.00 0.00 63 1013.4
20260507083306 10 324 14.5 24.1 0.00 0.00 0.00 63 1013.4
20260507083208 10 327 14.5 24.1 0.00 0.00 0.00 63 1013.5
20260507083106 10 306 14.5 24.1 0.00 0.00 0.00 63 1013.5
20260507083008 10 285 16.1 24.1 0.00 0.00 0.00 63 1013.5
20260507082859 10 311 16.1 24.1 0.00 0.00 0.00 63 1013.5
20260507082802 10 298 14.5 24.1 0.00 0.00 0.00 63 1013.5
20260507082657 10 331 14.5 24.1 0.00 0.00 0.00 63 1013.0
20260507082554 10 311 14.5 24.1 0.00 0.00 0.00 63 1013.0
20260507082437 10 324 16.1 24.1 0.00 0.00 0.00 62 1013.1
20260507082336 10 323 16.1 32.2 0.00 0.00 0.00 62 1013.1
20260507082242 10 291 16.1 32.2 0.00 0.00 0.00 62 1013.1
20260507082145 10 294 14.5 32.2 0.00 0.00 0.00 62 1013.1
20260507082041 10 16 14.5 32.2 0.00 0.00 0.00 62 1013.1
20260507081930 10 61 14.5 32.2 0.00 0.00 0.00 62 1013.1
20260507081823 10 336 14.5 32.2 0.00 0.00 0.00 62 1013.1
20260507081728 10 325 14.5 32.2 0.00 0.00 0.00 62 1013.1
20260507081617 10 305 14.5 32.2 0.00 0.00 0.00 62 1013.1
20260507081515 10 327 14.5 32.2 0.00 0.00 0.00 62 1013.2
20260507081409 10 309 14.5 25.7 0.00 0.00 0.00 62 1013.2
20260507081314 10 24 14.5 29.0 0.00 0.00 0.00 62 1013.2
20260507081212 10 341 14.5 29.0 0.00 0.00 0.00 62 1012.9
20260507081109 10 286 14.5 29.0 0.00 0.00 0.00 62 1012.9
20260507081010 11 316 14.5 29.0 0.00 0.00 0.00 61 1012.9
20260507080910 11 331 16.1 29.0 0.00 0.00 0.00 61 1012.9
20260507080807 10 265 16.1 29.0 0.00 0.00 0.00 61 1012.9
20260507080701 11 341 16.1 29.0 0.00 0.00 0.00 61 1012.9
20260507080555 11 343 16.1 29.0 0.00 0.00 0.00 61 1012.9
20260507080449 10 342 16.1 29.0 0.00 0.00 0.00 61 1012.9
20260507080350 10 22 16.1 22.5 0.00 0.00 0.00 62 1012.9
20260507080248 10 344 16.1 25.7 0.00 0.00 0.00 62 1012.9
20260507080142 10 341 16.1 25.7 0.00 0.00 0.00 62 1012.9
20260507080043 10 304 16.1 25.7 0.00 0.00 0.00 62 1012.9
20260507075944 10 15 16.1 25.7 0.00 0.00 0.00 62 1012.9
20260507075836 10 300 16.1 25.7 0.00 0.00 0.00 62 1012.9
20260507075737 10 321 17.7 32.2 0.00 0.00 0.00 61 1012.9
20260507075636 10 329 17.7 32.2 0.00 0.00 0.00 61 1012.8
20260507075538 10 299 17.7 32.2 0.00 0.00 0.00 61 1012.8
20260507075435 10 17 17.7 32.2 0.00 0.00 0.00 61 1012.8
20260507075335 10 340 17.7 33.8 0.00 0.00 0.00 61 1012.8
20260507075238 10 9 17.7 33.8 0.00 0.00 0.00 61 1012.8
20260507075132 10 292 17.7 33.8 0.00 0.00 0.00 61 1012.8
20260507075038 11 351 17.7 33.8 0.00 0.00 0.00 61 1012.9
20260507074933 11 322 19.3 33.8 0.00 0.00 0.00 61 1012.9
20260507074836 11 313 19.3 33.8 0.00 0.00 0.00 61 1012.9
20260507074735 11 40 17.7 33.8 0.00 0.00 0.00 61 1012.9
20260507074637 11 318 17.7 33.8 0.00 0.00 0.00 61 1012.9
20260507074528 11 322 17.7 33.8 0.00 0.00 0.00 61 1012.9
20260507074432 11 346 17.7 33.8 0.00 0.00 0.00 61 1012.9
20260507074326 11 15 17.7 30.6 0.00 0.00 0.00 61 1012.9
20260507074230 11 13 16.1 30.6 0.00 0.00 0.00 61 1012.8
20260507074120 11 324 16.1 30.6 0.00 0.00 0.00 61 1012.8
20260507074018 10 317 16.1 30.6 0.00 0.00 0.00 61 1012.7
20260507073923 10 339 16.1 29.0 0.00 0.00 0.00 61 1012.7
20260507073821 10 14 16.1 32.2 0.00 0.00 0.00 61 1012.7
20260507073711 10 340 16.1 32.2 0.00 0.00 0.00 62 1012.7
20260507073614 10 341 16.1 32.2 0.00 0.00 0.00 62 1012.7
20260507073515 10 298 17.7 32.2 0.00 0.00 0.00 62 1012.7
20260507073412 10 309 17.7 32.2 0.00 0.00 0.00 61 1012.7
20260507073320 10 12 19.3 32.2 0.00 0.00 0.00 61 1012.7
20260507073203 10 334 19.3 37.0 0.00 0.00 0.00 61 1012.7
20260507073107 10 309 19.3 37.0 0.00 0.00 0.00 61 1012.7
20260507072955 10 292 19.3 37.0 0.00 0.00 0.00 61 1012.6
20260507072853 10 319 19.3 37.0 0.00 0.00 0.00 61 1012.6
20260507072801 10 355 20.9 37.0 0.00 0.00 0.00 61 1012.7
20260507072646 10 330 20.9 37.0 0.00 0.00 0.00 61 1012.6
20260507072548 10 324 22.5 37.0 0.00 0.00 0.00 61 1012.6
20260507072445 10 27 22.5 37.0 0.00 0.00 0.00 61 1012.6
20260507072351 10 344 22.5 37.0 0.00 0.00 0.00 61 1012.6
20260507072251 10 346 20.9 37.0 0.00 0.00 0.00 61 1012.6
20260507072158 10 323 22.5 37.0 0.00 0.00 0.00 61 1012.6
20260507072041 10 19 22.5 37.0 0.00 0.00 0.00 61 1012.6
20260507071937 10 347 22.5 37.0 0.00 0.00 0.00 61 1012.6
20260507071834 10 307 22.5 37.0 0.00 0.00 0.00 61 1012.6
20260507071735 10 281 20.9 37.0 0.00 0.00 0.00 61 1012.6
20260507071635 10 349 20.9 37.0 0.00 0.00 0.00 61 1012.6
20260507071541 10 294 19.3 35.4 0.00 0.00 0.00 61 1012.6
20260507071433 10 308 19.3 35.4 0.00 0.00 0.00 61 1012.6
20260507071336 10 294 19.3 35.4 0.00 0.00 0.00 61 1012.6
20260507071229 10 317 19.3 35.4 0.00 0.00 0.00 61 1012.6
20260507071132 10 306 19.3 35.4 0.00 0.00 0.00 61 1012.6
20260507071031 10 342 19.3 35.4 0.00 0.00 0.00 61 1012.6
20260507070933 10 295 19.3 35.4 0.00 0.00 0.00 61 1012.6
20260507070825 10 309 19.3 35.4 0.00 0.00 0.00 61 1012.6
20260507070727 10 55 20.9 35.4 0.00 0.00 0.00 61 1012.6
20260507070621 10 15 20.9 35.4 0.00 0.00 0.00 60 1012.4
20260507070531 10 315 20.9 40.2 0.00 0.00 0.00 60 1012.4
20260507070418 10 318 20.9 40.2 0.00 0.00 0.00 60 1012.4
20260507070314 10 300 20.9 40.2 0.00 0.00 0.00 60 1012.4
20260507070210 11 303 22.5 40.2 0.00 0.00 0.00 60 1012.6
20260507070111 10 300 20.9 40.2 0.00 0.00 0.00 60 1012.4
20260507070013 11 306 22.5 40.2 0.00 0.00 0.00 60 1012.6
20260507065909 11 296 20.9 40.2 0.00 0.00 0.00 60 1012.6
20260507065801 11 290 20.9 40.2 0.00 0.00 0.00 60 1012.6
20260507065700 11 314 22.5 40.2 0.00 0.00 0.00 60 1012.6
20260507065557 11 15 20.9 40.2 0.00 0.00 0.00 60 1012.6
20260507065455 11 309 20.9 37.0 0.00 0.00 0.00 60 1012.6
20260507065356 11 289 20.9 37.0 0.00 0.00 0.00 60 1012.6
20260507065245 11 315 20.9 37.0 0.00 0.00 0.00 60 1012.6
20260507065145 11 288 20.9 37.0 0.00 0.00 0.00 60 1012.6
20260507065042 11 302 20.9 37.0 0.00 0.00 0.00 60 1012.6
20260507064940 11 288 20.9 37.0 0.00 0.00 0.00 60 1012.6
20260507064849 11 309 20.9 37.0 0.00 0.00 0.00 60 1012.6
20260507064736 11 313 20.9 37.0 0.00 0.00 0.00 60 1012.6
20260507064654 11 277 20.9 37.0 0.00 0.00 0.00 60 1012.6
20260507064539 11 317 20.9 37.0 0.00 0.00 0.00 60 1012.6
20260507064438 11 323 20.9 37.0 0.00 0.00 0.00 60 1012.6
20260507064336 11 317 20.9 37.0 0.00 0.00 0.00 60 1012.6
20260507064238 11 313 20.9 37.0 0.00 0.00 0.00 60 1012.6
20260507064135 11 292 20.9 37.0 0.00 0.00 0.00 60 1012.6
20260507064040 11 340 22.5 37.0 0.00 0.00 0.00 60 1012.6
20260507063936 11 327 22.5 35.4 0.00 0.00 0.00 60 1012.6
20260507063830 11 313 20.9 35.4 0.00 0.00 0.00 60 1012.6
20260507063725 11 308 20.9 35.4 0.00 0.00 0.00 60 1012.6
20260507063625 11 334 20.9 37.0 0.00 0.00 0.00 60 1012.6
20260507063529 11 323 20.9 37.0 0.00 0.00 0.00 60 1012.6
20260507063420 11 47 22.5 37.0 0.00 0.00 0.00 60 1012.7
20260507063321 11 314 22.5 37.0 0.00 0.00 0.00 60 1012.7
20260507063222 11 313 20.9 37.0 0.00 0.00 0.00 60 1012.6
20260507063114 11 306 20.9 37.0 0.00 0.00 0.00 60 1012.7
20260507063012 11 320 20.9 37.0 0.00 0.00 0.00 60 1012.7
20260507062907 11 300 20.9 37.0 0.00 0.00 0.00 60 1012.7
20260507062814 11 324 20.9 37.0 0.00 0.00 0.00 60 1012.7
20260507062707 11 301 20.9 37.0 0.00 0.00 0.00 60 1012.7
20260507062609 11 301 19.3 35.4 0.00 0.00 0.00 60 1012.7
20260507062510 11 294 20.9 32.2 0.00 0.00 0.00 60 1012.7
20260507062359 11 311 19.3 40.2 0.00 0.00 0.00 60 1012.7
20260507062258 11 294 20.9 40.2 0.00 0.00 0.00 60 1012.7
20260507062157 11 36 20.9 40.2 0.00 0.00 0.00 60 1012.7
20260507062046 11 311 20.9 40.2 0.00 0.00 0.00 60 1012.7
20260507061949 11 306 20.9 40.2 0.00 0.00 0.00 59 1012.7
20260507061844 11 285 20.9 40.2 0.00 0.00 0.00 59 1012.7
20260507061749 11 282 20.9 40.2 0.00 0.00 0.00 59 1012.7
20260507061653 11 322 20.9 40.2 0.00 0.00 0.00 59 1012.7
20260507061541 11 279 20.9 40.2 0.00 0.00 0.00 59 1012.7
20260507061441 11 346 20.9 37.0 0.00 0.00 0.00 59 1012.7
20260507061339 11 331 22.5 38.6 0.00 0.00 0.00 59 1012.7
20260507061240 11 349 22.5 38.6 0.00 0.00 0.00 59 1012.7
20260507061133 11 281 22.5 41.8 0.00 0.00 0.00 59 1012.9
20260507061032 11 338 22.5 41.8 0.00 0.00 0.00 59 1012.9
20260507060935 11 320 24.1 41.8 0.00 0.00 0.00 59 1012.9
20260507060835 11 304 22.5 41.8 0.00 0.00 0.00 59 1012.9
20260507060729 11 259 22.5 41.8 0.00 0.00 0.00 59 1012.9
20260507060641 11 302 22.5 41.8 0.00 0.00 0.00 59 1012.9
20260507060524 11 321 22.5 41.8 0.00 0.00 0.00 59 1013.0
20260507060425 11 333 20.9 41.8 0.00 0.00 0.00 59 1013.0
20260507060324 11 285 20.9 41.8 0.00 0.00 0.00 59 1013.0
20260507060224 11 309 20.9 41.8 0.00 0.00 0.00 59 1013.0
20260507060122 11 311 20.9 33.8 0.00 0.00 0.00 59 1013.0
20260507060014 11 301 20.9 33.8 0.00 0.00 0.00 59 1013.1
20260507055920 11 295 20.9 33.8 0.00 0.00 0.00 59 1013.1
20260507055810 11 343 20.9 33.8 0.00 0.00 0.00 59 1013.1
20260507055714 11 280 20.9 38.6 0.00 0.00 0.00 59 1012.9
20260507055606 11 299 20.9 38.6 0.00 0.00 0.00 59 1012.9
20260507055504 11 299 22.5 38.6 0.00 0.00 0.00 59 1012.9
20260507055400 11 308 22.5 38.6 0.00 0.00 0.00 58 1012.9
20260507055306 11 300 20.9 38.6 0.00 0.00 0.00 58 1012.9
20260507055201 11 36 20.9 38.6 0.00 0.00 0.00 58 1012.9
20260507055056 12 319 20.9 38.6 0.00 0.00 0.00 58 1012.9
20260507054953 12 300 20.9 38.6 0.00 0.00 0.00 58 1013.0
20260507054849 12 318 22.5 38.6 0.00 0.00 0.00 58 1013.0
20260507054751 12 335 22.5 38.6 0.00 0.00 0.00 58 1013.0
20260507054645 12 323 20.9 37.0 0.00 0.00 0.00 58 1013.0
20260507054547 12 317 20.9 38.6 0.00 0.00 0.00 57 1013.0
20260507054440 12 307 20.9 38.6 0.00 0.00 0.00 57 1013.0
20260507054336 12 336 20.9 38.6 0.00 0.00 0.00 57 1013.0
20260507054237 12 286 20.9 38.6 0.00 0.00 0.00 57 1012.7
20260507054131 12 305 19.3 38.6 0.00 0.00 0.00 57 1012.7
20260507054027 12 266 19.3 38.6 0.00 0.00 0.00 57 1012.7
20260507053922 12 295 19.3 38.6 0.00 0.00 0.00 57 1012.7
20260507053823 12 333 19.3 38.6 0.00 0.00 0.00 57 1012.8
20260507053727 12 286 20.9 38.6 0.00 0.00 0.00 57 1012.8
20260507053656 12 290 20.9 38.6 0.00 0.00 0.00 57 1012.8
20260507053516 12 13 20.9 38.6 0.00 0.00 0.00 57 1012.8
20260507053410 12 26 20.9 38.6 0.00 0.00 0.00 57 1012.8
20260507053308 12 334 22.5 38.6 0.00 0.00 0.00 57 1012.8
20260507053211 12 284 22.5 38.6 0.00 0.00 0.00 57 1012.9
20260507053111 12 14 22.5 38.6 0.00 0.00 0.00 56 1012.8
20260507053013 12 295 22.5 38.6 0.00 0.00 0.00 56 1012.8
20260507052908 12 313 22.5 38.6 0.00 0.00 0.00 56 1012.8
20260507052812 12 341 20.9 37.0 0.00 0.00 0.00 56 1012.9
20260507052704 12 321 20.9 37.0 0.00 0.00 0.00 56 1012.3
20260507052605 12 308 20.9 37.0 0.00 0.00 0.00 56 1012.3
20260507052503 12 13 20.9 43.5 0.00 0.00 0.00 56 1012.4
20260507052402 12 345 20.9 43.5 0.00 0.00 0.00 56 1012.4
20260507052310 12 288 20.9 43.5 0.00 0.00 0.00 56 1012.4
20260507052158 12 341 20.9 43.5 0.00 0.00 0.00 55 1012.4
20260507052058 13 250 20.9 43.5 0.00 0.00 0.00 55 1012.6
20260507051955 13 312 22.5 43.5 0.00 0.00 0.00 55 1012.6
20260507051854 13 48 22.5 43.5 0.00 0.00 0.00 55 1012.6
20260507051757 13 344 22.5 43.5 0.00 0.00 0.00 55 1012.6
20260507051658 13 275 22.5 43.5 0.00 0.00 0.00 55 1012.6
20260507051554 13 19 22.5 43.5 0.00 0.00 0.00 55 1012.6
20260507051455 13 300 22.5 35.4 0.00 0.00 0.00 55 1012.6
20260507051352 13 309 22.5 40.2 0.00 0.00 0.00 55 1012.6
20260507051243 13 301 24.1 40.2 0.00 0.00 0.00 55 1012.6
20260507051145 13 11 24.1 40.2 0.00 0.00 0.00 55 1012.8
20260507051046 13 309 24.1 40.2 0.00 0.00 0.00 54 1012.8
20260507050942 13 16 22.5 40.2 0.00 0.00 0.00 54 1012.8
20260507050839 13 337 22.5 40.2 0.00 0.00 0.00 54 1012.9
20260507050741 13 59 22.5 40.2 0.00 0.00 0.00 54 1012.9
20260507050639 13 327 22.5 40.2 0.00 0.00 0.00 53 1012.9
20260507050537 13 292 22.5 40.2 0.00 0.00 0.00 53 1013.0
20260507050435 13 334 22.5 40.2 0.00 0.00 0.00 53 1013.0
20260507050335 13 319 22.5 37.0 0.00 0.00 0.00 53 1013.0
20260507050236 13 46 20.9 37.0 0.00 0.00 0.00 53 1013.0
20260507050138 13 314 20.9 37.0 0.00 0.00 0.00 53 1013.1
20260507050038 13 297 20.9 37.0 0.00 0.00 0.00 53 1013.1
20260507045952 13 306 19.3 37.0 0.00 0.00 0.00 52 1013.1
20260507045912 14 319 17.7 37.0 0.00 0.00 0.00 52 1013.2
20260507045837 14 317 17.7 32.2 0.00 0.00 0.00 52 1012.3
20260507045754 14 298 17.7 30.6 0.00 0.00 0.00 52 1012.3
20260507045620 14 306 17.7 32.2 0.00 0.00 0.00 51 1012.3
20260507045543 14 321 19.3 32.2 0.00 0.00 0.00 51 1012.3
20260507045435 14 257 19.3 35.4 0.00 0.00 0.00 51 1012.4
20260507045324 14 11 19.3 35.4 0.00 0.00 0.00 51 1012.4
20260507045202 14 333 19.3 35.4 0.00 0.00 0.00 51 1012.4
20260507045045 14 335 20.9 35.4 0.00 0.00 0.00 51 1012.4
20260507044948 14 338 20.9 35.4 0.00 0.00 0.00 50 1012.4
20260507044857 14 315 22.5 35.4 0.00 0.00 0.00 50 1012.4
20260507044740 15 324 22.5 35.4 0.00 0.00 0.00 50 1012.6
20260507044635 15 263 22.5 35.4 0.00 0.00 0.00 50 1012.6
20260507044504 15 347 22.5 35.4 0.00 0.00 0.00 48 1012.7
20260507044412 15 311 20.9 35.4 0.00 0.00 0.00 48 1012.7
20260507044300 15 28 20.9 33.8 0.00 0.00 0.00 48 1012.8
20260507044157 15 311 20.9 33.8 0.00 0.00 0.00 48 1011.6
20260507044057 15 11 20.9 33.8 0.00 0.00 0.00 47 1011.6
20260507043956 15 303 20.9 33.8 0.00 0.00 0.00 46 1011.7
20260507043856 16 323 20.9 37.0 0.00 0.00 0.00 45 1011.7
20260507043754 16 332 19.3 37.0 0.00 0.00 0.00 45 1011.8
20260507043653 16 329 17.7 37.0 0.00 0.00 0.00 45 1011.9
20260507043556 16 288 17.7 37.0 0.00 0.00 0.00 45 1011.9
20260507043449 16 277 17.7 37.0 0.00 0.00 0.00 44 1012.0
20260507043347 16 338 17.7 37.0 0.00 0.00 0.00 42 1012.0
20260507043248 16 334 17.7 37.0 0.00 0.00 0.00 42 1012.1
20260507043141 17 332 16.1 37.0 0.00 0.00 0.00 41 1012.2
20260507043043 17 303 16.1 37.0 0.00 0.00 0.00 40 1012.3
20260507042942 17 355 14.5 37.0 0.00 0.00 0.00 36 1012.4
20260507042834 17 309 12.9 35.4 0.00 0.00 0.00 32 1012.6
20260507042742 18 324 12.9 35.4 0.00 0.00 0.00 32 1011.1
20260507042636 18 323 11.3 35.4 0.00 0.00 0.00 32 1011.2
20260507042531 18 278 8.0 35.4 0.00 0.00 0.00 31 1011.3
20260507042437 18 290 6.4 35.4 0.00 0.00 0.00 28 1011.4
20260507042328 18 296 4.8 19.3 0.00 0.00 0.00 27 1011.4
20260507042228 18 315 4.8 14.5 0.00 0.00 0.00 27 1011.4
20260507042127 18 292 4.8 14.5 0.00 0.00 0.00 27 1011.4
20260507042024 18 280 3.2 11.3 0.00 0.00 0.00 27 1011.4
20260507041927 18 273 3.2 11.3 0.00 0.00 0.00 27 1011.4
20260507041821 18 283 3.2 11.3 0.00 0.00 0.00 27 1011.4
20260507041726 18 277 3.2 11.3 0.00 0.00 0.00 27 1011.4
20260507041622 18 280 3.2 11.3 0.00 0.00 0.00 27 1011.4
20260507041521 18 262 3.2 11.3 0.00 0.00 0.00 27 1011.4
20260507041419 18 284 4.8 11.3 0.00 0.00 0.00 27 1011.4
20260507041320 18 275 4.8 11.3 0.00 0.00 0.00 27 1011.4
20260507041218 18 246 4.8 11.3 0.00 0.00 0.00 27 1011.6
20260507041111 18 263 4.8 11.3 0.00 0.00 0.00 27 1011.6
20260507041015 19 250 3.2 11.3 0.00 0.00 0.00 27 1011.7
20260507040909 19 242 3.2 11.3 0.00 0.00 0.00 27 1011.7
20260507040806 19 261 3.2 9.7 0.00 0.00 0.00 27 1011.7
20260507040736 19 262 3.2 9.7 0.00 0.00 0.00 27 1011.7
20260507040704 19 262 3.2 9.7 0.00 0.00 0.00 27 1011.7
20260507040554 19 259 3.2 9.7 0.00 0.00 0.00 27 1011.7
20260507040455 19 273 3.2 9.7 0.00 0.00 0.00 27 1011.7
20260507040356 19 250 1.6 9.7 0.00 0.00 0.00 27 1011.7
20260507040247 19 244 1.6 8.0 0.00 0.00 0.00 27 1011.7
20260507040149 19 272 3.2 8.0 0.00 0.00 0.00 26 1011.8
20260507040048 19 223 3.2 11.3 0.00 0.00 0.00 26 1011.8
20260507035849 19 260 3.2 11.3 0.00 0.00 0.00 26 1011.8
20260507035748 19 250 3.2 11.3 0.00 0.00 0.00 26 1011.8
20260507035637 20 217 3.2 11.3 0.00 0.00 0.00 25 1011.6
20260507035540 20 235 3.2 11.3 0.00 0.00 0.00 25 1011.6
20260507035446 20 255 4.8 11.3 0.00 0.00 0.00 25 1011.6
20260507035346 20 252 4.8 11.3 0.00 0.00 0.00 25 1011.7
20260507035240 20 227 4.8 11.3 0.00 0.00 0.00 25 1011.7
20260507035136 20 247 4.8 11.3 0.00 0.00 0.00 25 1011.7
20260507035042 20 230 4.8 11.3 0.00 0.00 0.00 25 1011.7
20260507034940 20 212 4.8 11.3 0.00 0.00 0.00 24 1011.7
20260507034837 20 236 4.8 11.3 0.00 0.00 0.00 24 1011.7
20260507034739 20 238 4.8 11.3 0.00 0.00 0.00 24 1011.7
20260507034632 20 257 4.8 11.3 0.00 0.00 0.00 24 1011.7
20260507034528 20 233 4.8 11.3 0.00 0.00 0.00 24 1011.7
20260507034427 20 223 4.8 11.3 0.00 0.00 0.00 24 1011.7
20260507034326 20 232 4.8 11.3 0.00 0.00 0.00 24 1011.7
20260507034228 20 252 4.8 11.3 0.00 0.00 0.00 24 1011.4
20260507034122 20 246 4.8 11.3 0.00 0.00 0.00 24 1011.4
20260507034020 20 228 4.8 11.3 0.00 0.00 0.00 24 1011.4
20260507033921 20 252 4.8 11.3 0.00 0.00 0.00 24 1011.4
20260507033821 20 236 4.8 11.3 0.00 0.00 0.00 24 1011.4
20260507033711 20 242 4.8 11.3 0.00 0.00 0.00 24 1011.4
20260507033611 20 243 4.8 11.3 0.00 0.00 0.00 24 1011.4
20260507033505 20 259 4.8 11.3 0.00 0.00 0.00 24 1011.4
20260507033406 20 237 4.8 11.3 0.00 0.00 0.00 24 1011.4
20260507033305 20 240 4.8 11.3 0.00 0.00 0.00 24 1011.4
20260507033206 20 275 4.8 11.3 0.00 0.00 0.00 24 1011.4
20260507033108 20 241 4.8 11.3 0.00 0.00 0.00 24 1011.4
20260507033004 20 232 3.2 11.3 0.00 0.00 0.00 24 1011.6
20260507032849 20 247 3.2 11.3 0.00 0.00 0.00 24 1011.6
20260507032749 20 255 3.2 11.3 0.00 0.00 0.00 24 1011.6
20260507032647 20 217 3.2 11.3 0.00 0.00 0.00 24 1011.2
20260507032554 20 277 3.2 11.3 0.00 0.00 0.00 24 1011.2
20260507032452 20 245 3.2 9.7 0.00 0.00 0.00 23 1011.2
20260507032347 20 256 3.2 9.7 0.00 0.00 0.00 23 1011.2
20260507032247 20 201 3.2 9.7 0.00 0.00 0.00 23 1011.2
20260507032144 20 242 3.2 9.7 0.00 0.00 0.00 23 1011.2
20260507032039 21 248 3.2 11.3 0.00 0.00 0.00 23 1011.3
20260507031942 21 234 4.8 14.5 0.00 0.00 0.00 22 1011.3
20260507031837 21 255 4.8 14.5 0.00 0.00 0.00 22 1011.3
20260507031736 21 224 4.8 14.5 0.00 0.00 0.00 22 1011.3
20260507031640 21 254 4.8 14.5 0.00 0.00 0.00 22 1011.3
20260507031546 21 241 4.8 14.5 0.00 0.00 0.00 22 1011.4
20260507031441 21 289 6.4 14.5 0.00 0.00 0.00 22 1011.4
20260507031339 21 226 6.4 14.5 0.00 0.00 0.00 22 1011.4
20260507031238 21 243 6.4 14.5 0.00 0.00 0.00 22 1011.4
20260507031136 21 249 6.4 14.5 0.00 0.00 0.00 21 1011.6
20260507031036 21 219 6.4 14.5 0.00 0.00 0.00 21 1011.6
20260507030941 21 231 6.4 14.5 0.00 0.00 0.00 21 1011.6
20260507030826 21 240 4.8 14.5 0.00 0.00 0.00 21 1011.6
20260507030720 21 235 4.8 14.5 0.00 0.00 0.00 21 1011.6
20260507030618 21 246 4.8 14.5 0.00 0.00 0.00 21 1011.6
20260507030512 21 257 4.8 14.5 0.00 0.00 0.00 21 1011.6
20260507030420 21 248 4.8 14.5 0.00 0.00 0.00 21 1011.6
20260507030311 21 238 4.8 14.5 0.00 0.00 0.00 21 1011.6
20260507030211 21 236 3.2 14.5 0.00 0.00 0.00 21 1011.6
20260507030112 21 246 3.2 12.9 0.00 0.00 0.00 21 1011.6
20260507030009 21 248 3.2 12.9 0.00 0.00 0.00 21 1011.6
20260507025914 21 192 3.2 11.3 0.00 0.00 0.00 22 1011.6
20260507025815 21 245 3.2 11.3 0.00 0.00 0.00 22 1011.6
20260507025708 21 234 3.2 11.3 0.00 0.00 0.00 22 1011.2
20260507025609 21 226 3.2 11.3 0.00 0.00 0.00 22 1011.2
20260507025513 21 249 3.2 11.3 0.00 0.00 0.00 22 1011.2
20260507025415 21 237 3.2 11.3 0.00 0.00 0.00 22 1011.2
20260507025301 21 215 3.2 11.3 0.00 0.00 0.00 22 1011.2
20260507025201 21 244 3.2 11.3 0.00 0.00 0.00 22 1011.2
20260507025054 21 242 4.8 11.3 0.00 0.00 0.00 22 1011.3
20260507024952 21 242 4.8 11.3 0.00 0.00 0.00 22 1011.3
20260507024844 21 277 4.8 11.3 0.00 0.00 0.00 22 1011.3
20260507024744 21 271 3.2 11.3 0.00 0.00 0.00 22 1011.3
20260507024648 21 244 3.2 11.3 0.00 0.00 0.00 22 1011.3
20260507024539 21 259 3.2 11.3 0.00 0.00 0.00 22 1011.3
20260507024432 21 243 3.2 11.3 0.00 0.00 0.00 22 1011.3
20260507024333 21 263 3.2 11.3 0.00 0.00 0.00 22 1011.3
20260507024237 21 284 3.2 11.3 0.00 0.00 0.00 22 1011.0
20260507024132 21 241 3.2 11.3 0.00 0.00 0.00 22 1011.0
20260507024033 21 247 3.2 11.3 0.00 0.00 0.00 22 1011.0
20260507023923 21 237 3.2 11.3 0.00 0.00 0.00 21 1011.0
20260507023826 21 250 3.2 11.3 0.00 0.00 0.00 21 1011.1
20260507023722 21 269 3.2 11.3 0.00 0.00 0.00 21 1011.1
20260507023623 21 259 3.2 11.3 0.00 0.00 0.00 21 1011.1
20260507023529 21 234 3.2 11.3 0.00 0.00 0.00 21 1011.1
20260507023413 21 217 3.2 11.3 0.00 0.00 0.00 21 1011.1
20260507023313 22 230 3.2 11.3 0.00 0.00 0.00 21 1011.1
20260507023209 22 244 3.2 11.3 0.00 0.00 0.00 21 1011.2
20260507023111 22 247 3.2 11.3 0.00 0.00 0.00 20 1011.2
20260507023007 22 245 3.2 11.3 0.00 0.00 0.00 20 1011.2
20260507022902 22 236 4.8 12.9 0.00 0.00 0.00 20 1011.2
20260507022810 22 256 4.8 12.9 0.00 0.00 0.00 20 1011.2
20260507022705 22 242 4.8 12.9 0.00 0.00 0.00 20 1010.9
20260507022603 22 173 4.8 12.9 0.00 0.00 0.00 20 1010.9
20260507022506 22 268 4.8 12.9 0.00 0.00 0.00 20 1010.9
20260507022354 22 239 4.8 12.9 0.00 0.00 0.00 20 1010.9
20260507022256 22 224 4.8 12.9 0.00 0.00 0.00 20 1010.9
20260507022156 22 220 4.8 12.9 0.00 0.00 0.00 20 1010.9
20260507022047 22 267 4.8 12.9 0.00 0.00 0.00 19 1010.9
20260507021949 22 247 4.8 11.3 0.00 0.00 0.00 19 1010.9
20260507021851 22 238 4.8 11.3 0.00 0.00 0.00 19 1010.9
20260507021748 22 250 4.8 11.3 0.00 0.00 0.00 19 1010.9
20260507021646 22 237 3.2 11.3 0.00 0.00 0.00 19 1010.9
20260507021545 22 247 3.2 11.3 0.00 0.00 0.00 19 1010.9
20260507021438 22 261 3.2 11.3 0.00 0.00 0.00 19 1010.9
20260507021348 22 244 3.2 8.0 0.00 0.00 0.00 19 1010.9
20260507021238 22 238 3.2 8.0 0.00 0.00 0.00 19 1011.0
20260507021138 22 248 3.2 9.7 0.00 0.00 0.00 19 1011.2
20260507021035 22 267 3.2 9.7 0.00 0.00 0.00 19 1011.3
20260507020936 22 255 3.2 9.7 0.00 0.00 0.00 18 1011.3
20260507020838 22 257 3.2 9.7 0.00 0.00 0.00 18 1011.3
20260507020746 22 271 3.2 9.7 0.00 0.00 0.00 18 1011.3
20260507020636 22 244 3.2 9.7 0.00 0.00 0.00 18 1011.3
20260507020536 22 234 3.2 9.7 0.00 0.00 0.00 18 1011.3
20260507020439 22 209 3.2 9.7 0.00 0.00 0.00 17 1011.4
20260507020335 22 248 3.2 9.7 0.00 0.00 0.00 17 1011.4
20260507020236 23 234 3.2 11.3 0.00 0.00 0.00 17 1011.4
20260507020136 23 228 3.2 11.3 0.00 0.00 0.00 17 1011.4
20260507020029 23 244 1.6 11.3 0.00 0.00 0.00 17 1011.4
20260507015924 23 234 1.6 11.3 0.00 0.00 0.00 17 1011.4
20260507015822 23 233 1.6 11.3 0.00 0.00 0.00 17 1011.4
20260507015720 23 241 1.6 11.3 0.00 0.00 0.00 17 1011.0
20260507015616 23 246 1.6 11.3 0.00 0.00 0.00 17 1011.0
20260507015514 23 252 1.6 11.3 0.00 0.00 0.00 17 1011.0
20260507015416 23 219 1.6 11.3 0.00 0.00 0.00 17 1011.0
20260507015312 23 212 1.6 9.7 0.00 0.00 0.00 17 1011.1
20260507015209 23 244 1.6 8.0 0.00 0.00 0.00 17 1011.1
20260507015112 23 240 1.6 8.0 0.00 0.00 0.00 17 1011.1
20260507015011 23 256 1.6 8.0 0.00 0.00 0.00 16 1011.1
20260507014909 23 237 1.6 8.0 0.00 0.00 0.00 16 1011.2
20260507014809 23 254 1.6 6.4 0.00 0.00 0.00 16 1011.2
20260507014712 23 257 1.6 6.4 0.00 0.00 0.00 16 1011.2
20260507014611 24 251 1.6 6.4 0.00 0.00 0.00 16 1011.3
20260507014512 24 278 1.6 6.4 0.00 0.00 0.00 16 1011.3
20260507014414 24 229 1.6 6.4 0.00 0.00 0.00 16 1011.3
20260507014301 24 236 3.2 8.0 0.00 0.00 0.00 16 1011.3
20260507014202 24 263 3.2 14.5 0.00 0.00 0.00 15 1010.9
20260507014101 24 247 3.2 14.5 0.00 0.00 0.00 15 1011.0
20260507014004 24 248 4.8 14.5 0.00 0.00 0.00 15 1011.0
20260507013847 24 267 4.8 14.5 0.00 0.00 0.00 15 1011.0
20260507013747 25 242 4.8 14.5 0.00 0.00 0.00 15 1011.0
20260507013645 25 261 6.4 14.5 0.00 0.00 0.00 15 1011.0
20260507013552 25 262 6.4 14.5 0.00 0.00 0.00 15 1011.1
20260507013441 25 274 8.0 14.5 0.00 0.00 0.00 15 1011.1
20260507013336 25 229 8.0 14.5 0.00 0.00 0.00 15 1011.1
20260507013237 25 265 8.0 14.5 0.00 0.00 0.00 15 1011.1
20260507013137 25 250 8.0 14.5 0.00 0.00 0.00 14 1011.2
20260507013037 25 319 6.4 14.5 0.00 0.00 0.00 14 1011.2
20260507012944 25 247 6.4 14.5 0.00 0.00 0.00 14 1011.2
20260507012824 25 283 6.4 14.5 0.00 0.00 0.00 14 1011.2
20260507012728 25 254 6.4 14.5 0.00 0.00 0.00 14 1010.8
20260507012622 25 244 6.4 16.1 0.00 0.00 0.00 14 1010.8
20260507012526 25 269 6.4 16.1 0.00 0.00 0.00 14 1010.8
20260507012423 25 250 8.0 16.1 0.00 0.00 0.00 14 1010.8
20260507012319 25 246 8.0 16.1 0.00 0.00 0.00 15 1010.8
20260507012221 25 265 8.0 16.1 0.00 0.00 0.00 15 1010.9
20260507012115 25 267 8.0 16.1 0.00 0.00 0.00 15 1010.9
20260507012017 25 269 9.7 16.1 0.00 0.00 0.00 15 1010.9
20260507011922 25 253 9.7 17.7 0.00 0.00 0.00 15 1010.9
20260507011758 25 273 9.7 19.3 0.00 0.00 0.00 15 1010.9
20260507011701 25 258 9.7 22.5 0.00 0.00 0.00 15 1010.9
20260507011558 25 273 9.7 22.5 0.00 0.00 0.00 15 1010.9
20260507011502 25 269 9.7 22.5 0.00 0.00 0.00 15 1010.9
20260507011356 25 227 9.7 22.5 0.00 0.00 0.00 15 1010.9
20260507011257 25 211 9.7 22.5 0.00 0.00 0.00 14 1010.9
20260507011152 26 225 9.7 22.5 0.00 0.00 0.00 14 1011.3
20260507011045 26 268 11.3 22.5 0.00 0.00 0.00 14 1011.3
20260507010946 26 239 9.7 22.5 0.00 0.00 0.00 14 1011.3
20260507010854 26 279 9.7 22.5 0.00 0.00 0.00 14 1011.4
20260507010744 26 231 9.7 22.5 0.00 0.00 0.00 14 1011.4
20260507010645 26 270 9.7 17.7 0.00 0.00 0.00 15 1011.4
20260507010537 26 255 9.7 19.3 0.00 0.00 0.00 14 1011.4
20260507010438 26 236 11.3 19.3 0.00 0.00 0.00 14 1011.4
20260507010338 26 281 11.3 19.3 0.00 0.00 0.00 14 1011.4
20260507010233 26 260 11.3 19.3 0.00 0.00 0.00 14 1011.4
20260507010129 26 260 11.3 29.0 0.00 0.00 0.00 14 1011.4
20260507010030 26 230 11.3 29.0 0.00 0.00 0.00 14 1011.4
20260507005930 26 268 12.9 29.0 0.00 0.00 0.00 14 1011.4
20260507005828 26 212 12.9 29.0 0.00 0.00 0.00 14 1011.4
20260507005712 26 238 12.9 29.0 0.00 0.00 0.00 14 1011.0
20260507005612 26 243 12.9 29.0 0.00 0.00 0.00 14 1011.0
20260507005511 26 229 12.9 29.0 0.00 0.00 0.00 14 1011.0
20260507005414 26 257 12.9 29.0 0.00 0.00 0.00 14 1011.0
20260507005312 26 246 14.5 29.0 0.00 0.00 0.00 14 1011.0
20260507005211 26 236 12.9 29.0 0.00 0.00 0.00 14 1011.0
20260507005105 26 248 14.5 29.0 0.00 0.00 0.00 14 1011.0
20260507005010 26 262 14.5 29.0 0.00 0.00 0.00 13 1011.0
20260507004906 26 248 12.9 29.0 0.00 0.00 0.00 14 1011.1
20260507004811 26 241 12.9 29.0 0.00 0.00 0.00 14 1011.1
20260507004700 26 215 12.9 29.0 0.00 0.00 0.00 14 1011.1
20260507004603 26 232 14.5 32.2 0.00 0.00 0.00 13 1011.1
20260507004454 26 247 14.5 32.2 0.00 0.00 0.00 13 1011.1
20260507004351 26 260 12.9 32.2 0.00 0.00 0.00 13 1011.1
20260507004247 26 251 14.5 32.2 0.00 0.00 0.00 13 1011.1
20260507004148 26 169 14.5 32.2 0.00 0.00 0.00 13 1010.9
20260507004047 26 231 14.5 32.2 0.00 0.00 0.00 13 1010.9
20260507003942 26 213 12.9 32.2 0.00 0.00 0.00 13 1010.9
20260507003837 26 209 14.5 32.2 0.00 0.00 0.00 13 1010.9
20260507003741 26 246 16.1 32.2 0.00 0.00 0.00 13 1010.9
20260507003640 26 242 14.5 32.2 0.00 0.00 0.00 13 1010.9
20260507003541 26 246 14.5 32.2 0.00 0.00 0.00 13 1010.9
20260507003440 26 231 14.5 32.2 0.00 0.00 0.00 12 1010.8
20260507003345 26 280 14.5 32.2 0.00 0.00 0.00 12 1010.9
20260507003234 26 240 14.5 32.2 0.00 0.00 0.00 12 1010.9
20260507003138 26 250 12.9 32.2 0.00 0.00 0.00 12 1010.9
20260507003034 26 293 12.9 32.2 0.00 0.00 0.00 12 1010.9
20260507002942 26 240 12.9 32.2 0.00 0.00 0.00 12 1010.9
20260507002839 26 276 11.3 32.2 0.00 0.00 0.00 12 1010.9
20260507002734 26 162 11.3 22.5 0.00 0.00 0.00 13 1010.9
20260507002630 26 265 11.3 22.5 0.00 0.00 0.00 12 1010.9
20260507002525 26 207 11.3 22.5 0.00 0.00 0.00 12 1011.0
20260507002429 26 227 11.3 22.5 0.00 0.00 0.00 13 1011.0
20260507002324 26 225 12.9 24.1 0.00 0.00 0.00 13 1011.0
20260507002228 26 270 12.9 29.0 0.00 0.00 0.00 13 1010.9
20260507002118 26 216 12.9 29.0 0.00 0.00 0.00 13 1010.9
20260507002015 26 234 12.9 29.0 0.00 0.00 0.00 13 1010.9
20260507001915 26 246 14.5 29.0 0.00 0.00 0.00 13 1010.9
20260507001809 26 246 14.5 29.0 0.00 0.00 0.00 13 1010.9
20260507001714 26 281 14.5 29.0 0.00 0.00 0.00 13 1010.9
20260507001613 26 267 14.5 29.0 0.00 0.00 0.00 13 1010.9
20260507001512 26 250 16.1 29.0 0.00 0.00 0.00 13 1010.9
20260507001409 26 290 16.1 30.6 0.00 0.00 0.00 13 1010.9
20260507001311 26 233 16.1 38.6 0.00 0.00 0.00 13 1010.9
20260507001210 26 235 16.1 38.6 0.00 0.00 0.00 13 1010.7
20260507001108 26 246 17.7 38.6 0.00 0.00 0.00 13 1010.7
20260507001011 26 223 16.1 38.6 0.00 0.00 0.00 13 1010.7
20260507000907 26 265 16.1 38.6 0.00 0.00 0.00 13 1010.7
20260507000812 26 270 16.1 38.6 0.00 0.00 0.00 13 1010.7
20260507000708 26 246 16.1 38.6 0.00 0.00 0.00 13 1010.7
20260507000604 26 242 17.7 38.6 0.00 0.00 0.00 13 1010.7
20260507000459 26 273 16.1 38.6 0.00 0.00 0.00 12 1010.7
20260507000357 27 211 16.1 37.0 0.00 0.00 0.00 12 1010.7
20260507000256 27 234 14.5 33.8 0.00 0.00 0.00 12 1010.8
20260507000157 27 244 14.5 33.8 0.00 0.00 0.00 12 1010.8
20260507000051 27 223 14.5 30.6 0.00 0.00 0.00 12 1010.8
20260506235947 27 246 16.1 38.6 0.00 0.00 0.00 12 1010.8
20260506235850 27 246 16.1 38.6 0.00 0.00 0.00 12 1010.8
20260506235746 27 253 16.1 38.6 0.00 0.00 0.00 12 1010.8
20260506235650 27 180 17.7 38.6 0.00 0.00 0.00 12 1010.6
20260506235545 27 239 16.1 38.6 0.00 0.00 0.00 12 1010.6
20260506235446 27 167 17.7 38.6 0.00 0.00 0.00 12 1010.5
20260506235345 27 229 17.7 38.6 0.00 0.00 0.00 12 1010.5
20260506235246 26 284 17.7 38.6 0.00 0.00 0.00 12 1010.5
20260506235141 27 238 17.7 38.6 0.00 0.00 0.00 12 1010.5
20260506235039 27 236 19.3 38.6 0.00 0.00 0.00 12 1010.6
20260506234935 27 254 17.7 35.4 0.00 0.00 0.00 12 1010.6
20260506234833 27 244 17.7 35.4 0.00 0.00 0.00 12 1010.6
20260506234733 27 244 17.7 35.4 0.00 0.00 0.00 12 1010.6
20260506234626 27 206 17.7 35.4 0.00 0.00 0.00 12 1010.6
20260506234527 27 235 17.7 41.8 0.00 0.00 0.00 12 1010.6
20260506234428 27 245 17.7 41.8 0.00 0.00 0.00 12 1010.6
20260506234321 27 217 17.7 41.8 0.00 0.00 0.00 12 1010.6
20260506234227 27 240 17.7 41.8 0.00 0.00 0.00 12 1010.6
20260506234122 27 234 17.7 41.8 0.00 0.00 0.00 12 1010.6
20260506234022 27 244 17.7 41.8 0.00 0.00 0.00 12 1010.6
20260506233919 27 255 17.7 41.8 0.00 0.00 0.00 12 1010.6
20260506233815 27 225 17.7 41.8 0.00 0.00 0.00 12 1010.6
20260506233709 27 242 17.7 41.8 0.00 0.00 0.00 12 1010.6
20260506233606 27 233 17.7 41.8 0.00 0.00 0.00 12 1010.6
20260506233505 27 236 17.7 33.8 0.00 0.00 0.00 12 1010.6
20260506233404 27 220 17.7 33.8 0.00 0.00 0.00 12 1010.6
20260506233305 27 232 17.7 33.8 0.00 0.00 0.00 11 1010.6
20260506233203 27 219 16.1 35.4 0.00 0.00 0.00 11 1010.6
20260506233103 27 195 16.1 35.4 0.00 0.00 0.00 11 1010.6
20260506233004 27 227 16.1 35.4 0.00 0.00 0.00 11 1010.7
20260506232901 27 265 16.1 35.4 0.00 0.00 0.00 11 1010.7
20260506232806 27 230 14.5 35.4 0.00 0.00 0.00 11 1010.7
20260506232639 27 232 14.5 35.4 0.00 0.00 0.00 11 1010.2
20260506232532 27 187 14.5 35.4 0.00 0.00 0.00 11 1010.2
20260506232433 27 235 14.5 35.4 0.00 0.00 0.00 11 1010.3
20260506232331 27 257 14.5 35.4 0.00 0.00 0.00 12 1010.3
20260506232231 27 296 14.5 35.4 0.00 0.00 0.00 12 1010.3
20260506232131 27 255 14.5 33.8 0.00 0.00 0.00 13 1010.3
20260506232029 27 243 14.5 35.4 0.00 0.00 0.00 12 1010.3
20260506231934 27 235 14.5 35.4 0.00 0.00 0.00 12 1010.3
20260506231817 27 232 14.5 35.4 0.00 0.00 0.00 12 1010.3
20260506231719 27 237 14.5 35.4 0.00 0.00 0.00 12 1010.3
20260506231612 27 211 14.5 35.4 0.00 0.00 0.00 12 1010.3
20260506231504 27 250 14.5 35.4 0.00 0.00 0.00 12 1010.3
20260506231404 27 223 16.1 35.4 0.00 0.00 0.00 12 1010.3
20260506231302 27 245 16.1 35.4 0.00 0.00 0.00 12 1010.3
20260506231206 27 277 16.1 35.4 0.00 0.00 0.00 12 1010.2
20260506231104 27 261 14.5 35.4 0.00 0.00 0.00 12 1010.2
20260506231005 27 104 14.5 29.0 0.00 0.00 0.00 12 1010.2
20260506230904 27 201 14.5 29.0 0.00 0.00 0.00 11 1010.1
20260506230800 27 237 14.5 29.0 0.00 0.00 0.00 12 1010.1
20260506230702 27 206 14.5 32.2 0.00 0.00 0.00 12 1010.1
20260506230600 27 226 14.5 32.2 0.00 0.00 0.00 11 1010.1
20260506230453 27 191 14.5 32.2 0.00 0.00 0.00 11 1010.1
20260506230348 27 217 12.9 32.2 0.00 0.00 0.00 12 1010.2
20260506230241 27 190 12.9 32.2 0.00 0.00 0.00 11 1010.1
20260506230145 27 264 12.9 33.8 0.00 0.00 0.00 12 1010.2
20260506230115 27 336 14.5 33.8 0.00 0.00 0.00 12 1010.1
20260506225938 27 229 14.5 33.8 0.00 0.00 0.00 12 1010.1
20260506225844 27 265 14.5 33.8 0.00 0.00 0.00 11 1010.1
20260506225746 27 203 16.1 33.8 0.00 0.00 0.00 12 1010.1
20260506225639 27 256 16.1 33.8 0.00 0.00 0.00 11 1010.0
20260506225542 27 238 16.1 33.8 0.00 0.00 0.00 12 1010.1
20260506225434 27 276 16.1 33.8 0.00 0.00 0.00 12 1010.1
20260506225332 27 254 16.1 33.8 0.00 0.00 0.00 11 1010.0
20260506225227 27 126 16.1 33.8 0.00 0.00 0.00 11 1010.0
20260506225127 27 236 14.5 32.2 0.00 0.00 0.00 12 1010.0
20260506225019 27 281 14.5 32.2 0.00 0.00 0.00 11 1010.0
20260506224920 27 244 16.1 32.2 0.00 0.00 0.00 12 1010.0
20260506224812 27 277 14.5 32.2 0.00 0.00 0.00 11 1010.1
20260506224711 27 251 14.5 32.2 0.00 0.00 0.00 11 1010.1
20260506224612 27 245 14.5 25.7 0.00 0.00 0.00 11 1010.1
20260506224508 27 180 14.5 25.7 0.00 0.00 0.00 12 1010.1
20260506224413 27 252 14.5 25.7 0.00 0.00 0.00 12 1010.1
20260506224310 27 234 14.5 25.7 0.00 0.00 0.00 12 1010.1
20260506224213 27 235 14.5 29.0 0.00 0.00 0.00 12 1010.1
20260506224108 27 239 16.1 32.2 0.00 0.00 0.00 12 1010.1
20260506224008 27 148 16.1 32.2 0.00 0.00 0.00 12 1010.0
20260506223914 27 259 16.1 32.2 0.00 0.00 0.00 12 1010.0
20260506223809 27 238 16.1 32.2 0.00 0.00 0.00 12 1010.0
20260506223709 27 288 17.7 32.2 0.00 0.00 0.00 12 1010.0
20260506223615 27 234 17.7 32.2 0.00 0.00 0.00 12 1010.0
20260506223515 27 250 19.3 33.8 0.00 0.00 0.00 11 1009.9
20260506223411 27 248 17.7 33.8 0.00 0.00 0.00 12 1010.0
20260506223309 27 244 19.3 33.8 0.00 0.00 0.00 11 1009.9
20260506223206 27 257 17.7 33.8 0.00 0.00 0.00 11 1010.0
20260506223104 27 213 17.7 33.8 0.00 0.00 0.00 11 1010.0
20260506223006 27 209 17.7 33.8 0.00 0.00 0.00 12 1010.0
20260506222900 27 253 17.7 33.8 0.00 0.00 0.00 11 1010.0
20260506222803 27 167 17.7 33.8 0.00 0.00 0.00 12 1010.0
20260506222659 27 209 16.1 33.8 0.00 0.00 0.00 12 1010.2
20260506222555 27 234 16.1 33.8 0.00 0.00 0.00 12 1010.2
20260506222454 27 292 14.5 25.7 0.00 0.00 0.00 12 1010.2
20260506222353 27 240 14.5 25.7 0.00 0.00 0.00 11 1010.2
20260506222251 27 238 14.5 25.7 0.00 0.00 0.00 12 1010.2
20260506222155 27 207 14.5 25.7 0.00 0.00 0.00 12 1010.2
20260506222113 27 229 14.5 25.7 0.00 0.00 0.00 12 1010.1
20260506221953 27 188 14.5 25.7 0.00 0.00 0.00 11 1010.1
20260506221855 27 252 14.5 25.7 0.00 0.00 0.00 12 1010.1
20260506221748 27 259 12.9 32.2 0.00 0.00 0.00 12 1010.1
20260506221644 27 271 12.9 35.4 0.00 0.00 0.00 12 1010.1
20260506221543 27 267 12.9 35.4 0.00 0.00 0.00 12 1010.1
20260506221442 27 235 14.5 35.4 0.00 0.00 0.00 12 1010.1
20260506221338 27 213 14.5 35.4 0.00 0.00 0.00 12 1010.1
20260506221238 27 244 14.5 35.4 0.00 0.00 0.00 12 1010.2
20260506221144 27 268 14.5 35.4 0.00 0.00 0.00 12 1009.6
20260506221041 27 265 14.5 35.4 0.00 0.00 0.00 12 1009.6
20260506220944 27 291 14.5 35.4 0.00 0.00 0.00 12 1009.6
20260506220840 27 254 12.9 35.4 0.00 0.00 0.00 12 1009.6
20260506220738 27 256 12.9 35.4 0.00 0.00 0.00 11 1009.6
20260506220637 27 246 12.9 29.0 0.00 0.00 0.00 12 1009.6
20260506220535 27 221 11.3 25.7 0.00 0.00 0.00 12 1009.7
20260506220433 27 240 11.3 25.7 0.00 0.00 0.00 12 1009.7
20260506220342 27 259 11.3 25.7 0.00 0.00 0.00 12 1009.7
20260506220235 27 257 11.3 24.1 0.00 0.00 0.00 12 1009.7
20260506220133 27 246 11.3 24.1 0.00 0.00 0.00 12 1009.7
20260506220037 27 242 12.9 24.1 0.00 0.00 0.00 12 1009.7
20260506215928 27 223 12.9 24.1 0.00 0.00 0.00 12 1009.7
20260506215823 27 228 12.9 24.1 0.00 0.00 0.00 12 1009.7
20260506215716 27 240 12.9 24.1 0.00 0.00 0.00 12 1009.9
20260506215610 27 267 12.9 24.1 0.00 0.00 0.00 12 1009.9
20260506215508 27 240 12.9 24.1 0.00 0.00 0.00 12 1009.8
20260506215407 27 209 12.9 24.1 0.00 0.00 0.00 12 1009.8
20260506215308 27 274 12.9 24.1 0.00 0.00 0.00 12 1009.8
20260506215206 27 302 12.9 24.1 0.00 0.00 0.00 12 1009.8
20260506215100 27 241 12.9 24.1 0.00 0.00 0.00 11 1009.7
20260506215004 27 292 12.9 24.1 0.00 0.00 0.00 12 1009.7
20260506214854 27 262 14.5 29.0 0.00 0.00 0.00 12 1009.8
20260506214756 27 298 14.5 29.0 0.00 0.00 0.00 12 1009.8
20260506214652 27 270 14.5 30.6 0.00 0.00 0.00 12 1009.8
20260506214552 27 268 14.5 30.6 0.00 0.00 0.00 12 1009.8
20260506214443 27 240 16.1 30.6 0.00 0.00 0.00 12 1009.8
20260506214346 27 269 14.5 30.6 0.00 0.00 0.00 12 1009.8
20260506214243 27 268 14.5 30.6 0.00 0.00 0.00 12 1009.8
20260506214145 27 218 14.5 30.6 0.00 0.00 0.00 12 1009.8
20260506214036 27 236 14.5 30.6 0.00 0.00 0.00 12 1009.8
20260506213943 27 250 12.9 30.6 0.00 0.00 0.00 12 1009.8
20260506213835 27 148 12.9 30.6 0.00 0.00 0.00 12 1009.8
20260506213736 27 231 12.9 30.6 0.00 0.00 0.00 12 1009.8
20260506213638 27 296 12.9 30.6 0.00 0.00 0.00 12 1009.8
20260506213535 27 186 12.9 30.6 0.00 0.00 0.00 12 1009.9
20260506213436 27 263 12.9 25.7 0.00 0.00 0.00 12 1009.9
20260506213342 27 268 12.9 25.7 0.00 0.00 0.00 12 1009.9
20260506213233 27 219 12.9 25.7 0.00 0.00 0.00 12 1009.9
20260506213128 27 240 12.9 25.7 0.00 0.00 0.00 12 1009.9
20260506213027 27 238 12.9 25.7 0.00 0.00 0.00 12 1009.8
20260506212933 27 267 14.5 25.7 0.00 0.00 0.00 12 1009.8
20260506212828 27 264 12.9 25.7 0.00 0.00 0.00 12 1009.8
20260506212730 27 302 12.9 25.7 0.00 0.00 0.00 12 1010.0
20260506212622 27 271 12.9 25.7 0.00 0.00 0.00 12 1010.1
20260506212518 27 261 12.9 24.1 0.00 0.00 0.00 12 1010.2
20260506212413 27 241 12.9 24.1 0.00 0.00 0.00 11 1010.1
20260506212315 27 243 12.9 24.1 0.00 0.00 0.00 12 1010.2
20260506212208 27 237 12.9 20.9 0.00 0.00 0.00 12 1010.2
20260506212110 27 284 12.9 20.9 0.00 0.00 0.00 12 1010.2
20260506212010 27 161 12.9 20.9 0.00 0.00 0.00 11 1010.1
20260506211908 27 188 12.9 20.9 0.00 0.00 0.00 13 1010.1
20260506211814 27 282 12.9 20.9 0.00 0.00 0.00 13 1010.1
20260506211711 27 239 12.9 20.9 0.00 0.00 0.00 12 1010.0
20260506211613 27 214 12.9 19.3 0.00 0.00 0.00 12 1010.0
20260506211509 27 244 12.9 22.5 0.00 0.00 0.00 12 1010.0
20260506211419 27 239 12.9 25.7 0.00 0.00 0.00 12 1010.0
20260506211307 27 236 12.9 25.7 0.00 0.00 0.00 13 1010.0
20260506211210 27 300 12.9 25.7 0.00 0.00 0.00 14 1010.2
20260506211108 27 266 12.9 25.7 0.00 0.00 0.00 14 1010.2
20260506211012 27 285 12.9 25.7 0.00 0.00 0.00 13 1010.1
20260506210912 27 216 12.9 25.7 0.00 0.00 0.00 13 1010.1
20260506210803 27 252 12.9 25.7 0.00 0.00 0.00 12 1010.1
20260506210705 27 240 12.9 25.7 0.00 0.00 0.00 13 1010.1
20260506210556 27 219 12.9 25.7 0.00 0.00 0.00 12 1010.1
20260506210437 27 260 11.3 25.7 0.00 0.00 0.00 14 1010.1
20260506210341 27 239 11.3 22.5 0.00 0.00 0.00 14 1010.0
20260506210217 26 288 12.9 22.5 0.00 0.00 0.00 12 1010.0
20260506210117 26 251 12.9 22.5 0.00 0.00 0.00 13 1010.0
20260506210017 27 181 12.9 24.1 0.00 0.00 0.00 12 1010.0
20260506205911 27 200 12.9 24.1 0.00 0.00 0.00 14 1010.0
20260506205813 26 207 12.9 24.1 0.00 0.00 0.00 14 1009.9
20260506205710 26 265 12.9 24.1 0.00 0.00 0.00 14 1010.1
20260506205611 26 283 12.9 24.1 0.00 0.00 0.00 13 1010.1
20260506205511 26 315 14.5 29.0 0.00 0.00 0.00 13 1010.1
20260506205411 26 288 16.1 29.0 0.00 0.00 0.00 12 1010.1
20260506205306 26 289 14.5 29.0 0.00 0.00 0.00 13 1010.1
20260506205202 26 203 14.5 29.0 0.00 0.00 0.00 14 1010.2
20260506205104 26 278 16.1 29.0 0.00 0.00 0.00 14 1010.2
20260506205010 26 279 16.1 33.8 0.00 0.00 0.00 13 1010.1
20260506204852 26 225 14.5 33.8 0.00 0.00 0.00 13 1010.2
20260506204739 27 260 14.5 33.8 0.00 0.00 0.00 13 1010.2
20260506204641 27 285 12.9 33.8 0.00 0.00 0.00 13 1010.3
20260506204538 27 221 12.9 33.8 0.00 0.00 0.00 13 1010.3
20260506204437 27 250 11.3 33.8 0.00 0.00 0.00 13 1010.3
20260506204337 27 279 11.3 33.8 0.00 0.00 0.00 13 1010.3
20260506204231 27 203 11.3 33.8 0.00 0.00 0.00 13 1010.7
20260506204132 27 205 9.7 33.8 0.00 0.00 0.00 13 1010.7
20260506204023 27 203 9.7 20.9 0.00 0.00 0.00 13 1010.7
20260506203925 27 230 9.7 19.3 0.00 0.00 0.00 13 1010.7
20260506203826 27 198 9.7 19.3 0.00 0.00 0.00 13 1010.6
20260506203723 27 229 9.7 19.3 0.00 0.00 0.00 14 1010.6
20260506203627 26 238 11.3 19.3 0.00 0.00 0.00 14 1010.5
20260506203517 26 211 11.3 19.3 0.00 0.00 0.00 14 1010.5
20260506203420 26 264 11.3 22.5 0.00 0.00 0.00 13 1010.5
20260506203314 26 242 9.7 22.5 0.00 0.00 0.00 15 1010.5
20260506203213 26 280 9.7 22.5 0.00 0.00 0.00 14 1010.5
20260506203118 26 220 8.0 22.5 0.00 0.00 0.00 14 1010.5
20260506203008 26 86 8.0 22.5 0.00 0.00 0.00 15 1010.5
20260506202909 26 146 8.0 22.5 0.00 0.00 0.00 15 1010.5
20260506202806 27 297 8.0 22.5 0.00 0.00 0.00 16 1010.6
20260506202706 27 279 8.0 22.5 0.00 0.00 0.00 16 1010.7
20260506202603 27 262 8.0 22.5 0.00 0.00 0.00 16 1010.8
20260506202458 27 273 6.4 16.1 0.00 0.00 0.00 16 1010.8
20260506202404 27 287 6.4 16.1 0.00 0.00 0.00 15 1010.8
20260506202259 27 244 6.4 16.1 0.00 0.00 0.00 12 1010.8
20260506202159 27 206 6.4 16.1 0.00 0.00 0.00 14 1010.8
20260506202054 27 245 6.4 16.1 0.00 0.00 0.00 14 1010.8
20260506201948 27 234 6.4 16.1 0.00 0.00 0.00 14 1010.8
20260506201841 27 203 4.8 12.9 0.00 0.00 0.00 14 1010.7
20260506201748 26 165 4.8 12.9 0.00 0.00 0.00 15 1010.6
20260506201720 26 250 4.8 12.9 0.00 0.00 0.00 16 1010.6
20260506201644 26 250 4.8 12.9 0.00 0.00 0.00 16 1010.6
20260506201540 26 267 6.4 17.7 0.00 0.00 0.00 16 1010.5
20260506201437 26 271 6.4 17.7 0.00 0.00 0.00 16 1010.3
20260506201338 26 242 6.4 17.7 0.00 0.00 0.00 16 1010.3
20260506201240 26 243 8.0 17.7 0.00 0.00 0.00 18 1010.2
20260506201141 26 290 8.0 17.7 0.00 0.00 0.00 17 1010.2
20260506201041 26 295 8.0 17.7 0.00 0.00 0.00 17 1010.2
20260506200935 26 279 8.0 17.7 0.00 0.00 0.00 17 1010.3
20260506200833 26 231 8.0 17.7 0.00 0.00 0.00 17 1010.3
20260506200733 26 229 6.4 17.7 0.00 0.00 0.00 18 1010.2
20260506200631 26 272 6.4 17.7 0.00 0.00 0.00 18 1010.2
20260506200525 26 338 6.4 14.5 0.00 0.00 0.00 18 1010.2
20260506200427 26 317 6.4 12.9 0.00 0.00 0.00 18 1010.2
20260506200326 26 331 4.8 12.9 0.00 0.00 0.00 18 1010.2
20260506200223 26 322 4.8 12.9 0.00 0.00 0.00 18 1010.2
20260506200118 26 80 4.8 11.3 0.00 0.00 0.00 18 1010.2
20260506200019 26 22 4.8 11.3 0.00 0.00 0.00 18 1010.2
20260506195915 26 53 4.8 11.3 0.00 0.00 0.00 18 1010.2
20260506195815 26 320 4.8 11.3 0.00 0.00 0.00 18 1010.2
20260506195712 26 323 4.8 12.9 0.00 0.00 0.00 17 1010.7
20260506195610 26 49 4.8 12.9 0.00 0.00 0.00 17 1010.7
20260506195508 26 21 4.8 12.9 0.00 0.00 0.00 18 1010.7
20260506195413 26 345 4.8 12.9 0.00 0.00 0.00 17 1010.7
20260506195310 26 17 4.8 12.9 0.00 0.00 0.00 17 1010.7
20260506195211 26 236 6.4 16.1 0.00 0.00 0.00 17 1010.7
20260506195106 26 276 6.4 16.1 0.00 0.00 0.00 18 1010.7
20260506195005 26 246 6.4 16.1 0.00 0.00 0.00 18 1010.6
20260506194908 26 298 6.4 16.1 0.00 0.00 0.00 18 1010.6
20260506194807 26 325 6.4 16.1 0.00 0.00 0.00 17 1010.6
20260506194706 26 279 6.4 16.1 0.00 0.00 0.00 18 1010.6
20260506194550 25 281 6.4 16.1 0.00 0.00 0.00 19 1010.5
20260506194450 25 284 6.4 16.1 0.00 0.00 0.00 19 1010.5
20260506194353 25 303 6.4 16.1 0.00 0.00 0.00 19 1010.3
20260506194248 25 300 6.4 16.1 0.00 0.00 0.00 19 1010.3
20260506194142 25 300 6.4 12.9 0.00 0.00 0.00 19 1010.3
20260506194046 25 74 6.4 12.9 0.00 0.00 0.00 18 1010.3
20260506193946 25 312 6.4 12.9 0.00 0.00 0.00 18 1010.3
20260506193841 25 294 4.8 12.9 0.00 0.00 0.00 18 1010.5
20260506193737 25 294 4.8 12.9 0.00 0.00 0.00 17 1010.5
20260506193648 26 287 4.8 12.9 0.00 0.00 0.00 17 1010.6
20260506193539 26 306 4.8 12.9 0.00 0.00 0.00 17 1010.6
20260506193433 26 323 4.8 12.9 0.00 0.00 0.00 17 1010.7
20260506193331 26 11 4.8 12.9 0.00 0.00 0.00 17 1010.7
20260506193241 26 320 4.8 12.9 0.00 0.00 0.00 17 1010.8
20260506193124 26 277 3.2 12.9 0.00 0.00 0.00 17 1010.8
20260506193028 26 266 1.6 9.7 0.00 0.00 0.00 17 1010.9
20260506192922 26 211 3.2 12.9 0.00 0.00 0.00 16 1010.8
20260506192823 26 79 4.8 16.1 0.00 0.00 0.00 17 1010.8
20260506192717 26 171 4.8 16.1 0.00 0.00 0.00 17 1011.2
20260506192616 26 248 4.8 16.1 0.00 0.00 0.00 17 1011.1
20260506192519 26 190 4.8 16.1 0.00 0.00 0.00 19 1011.1
20260506192415 26 150 4.8 16.1 0.00 0.00 0.00 19 1011.0
20260506192310 26 185 3.2 16.1 0.00 0.00 0.00 19 1011.0
20260506192211 25 134 3.2 16.1 0.00 0.00 0.00 19 1011.0
20260506192115 25 59 3.2 16.1 0.00 0.00 0.00 19 1011.0
20260506192016 25 180 4.8 16.1 0.00 0.00 0.00 19 1011.0
20260506191911 25 150 3.2 16.1 0.00 0.00 0.00 19 1011.0
20260506191809 26 266 3.2 16.1 0.00 0.00 0.00 19 1011.0
20260506191711 26 242 3.2 12.9 0.00 0.00 0.00 19 1011.0
20260506191609 26 264 3.2 12.9 0.00 0.00 0.00 20 1011.1
20260506191507 26 284 3.2 12.9 0.00 0.00 0.00 20 1011.1
20260506191405 26 269 3.2 11.3 0.00 0.00 0.00 20 1011.0
20260506191304 25 316 3.2 11.3 0.00 0.00 0.00 19 1010.9
20260506191140 25 236 3.2 11.3 0.00 0.00 0.00 19 1011.0
20260506191042 25 276 3.2 11.3 0.00 0.00 0.00 19 1011.0
20260506190944 25 232 3.2 11.3 0.00 0.00 0.00 19 1011.0
20260506190842 25 230 3.2 11.3 0.00 0.00 0.00 19 1011.0
20260506190740 25 227 3.2 11.3 0.00 0.00 0.00 19 1011.0
20260506190635 25 208 3.2 11.3 0.00 0.00 0.00 19 1011.0
20260506190535 25 281 3.2 11.3 0.00 0.00 0.00 20 1010.9
20260506190434 25 246 3.2 11.3 0.00 0.00 0.00 20 1010.9
20260506190334 25 245 3.2 11.3 0.00 0.00 0.00 21 1010.8
20260506190244 25 254 4.8 11.3 0.00 0.00 0.00 21 1010.8
20260506190128 25 298 4.8 14.5 0.00 0.00 0.00 21 1010.8
20260506190025 25 286 4.8 14.5 0.00 0.00 0.00 21 1010.8
20260506185926 25 279 4.8 14.5 0.00 0.00 0.00 21 1010.8
20260506185825 25 257 3.2 14.5 0.00 0.00 0.00 21 1010.9
20260506185729 25 252 4.8 14.5 0.00 0.00 0.00 19 1011.0
20260506185626 25 309 4.8 14.5 0.00 0.00 0.00 19 1011.1
20260506185520 25 319 4.8 16.1 0.00 0.00 0.00 21 1011.1
20260506185418 25 246 4.8 16.1 0.00 0.00 0.00 21 1011.1
20260506185315 25 243 4.8 16.1 0.00 0.00 0.00 20 1011.1
20260506185214 25 212 4.8 16.1 0.00 0.00 0.00 21 1011.0
20260506185107 25 82 3.2 16.1 0.00 0.00 0.00 20 1011.0
20260506185011 25 144 3.2 16.1 0.00 0.00 0.00 20 1011.0
20260506184912 25 220 3.2 16.1 0.00 0.00 0.00 20 1011.0
20260506184711 25 149 3.2 16.1 0.00 0.00 0.00 21 1011.1
20260506184609 25 82 3.2 16.1 0.00 0.00 0.00 21 1011.1
20260506184458 25 41 3.2 12.9 0.00 0.00 0.00 20 1011.2
20260506184403 25 113 4.8 12.9 0.00 0.00 0.00 21 1011.2
20260506184257 25 192 3.2 12.9 0.00 0.00 0.00 21 1011.1
20260506184157 25 90 3.2 12.9 0.00 0.00 0.00 22 1011.4
20260506184059 25 210 3.2 12.9 0.00 0.00 0.00 22 1011.4
20260506183952 25 161 3.2 12.9 0.00 0.00 0.00 22 1011.3
20260506183853 25 195 4.8 12.9 0.00 0.00 0.00 22 1011.3
20260506183744 25 220 4.8 12.9 0.00 0.00 0.00 22 1011.3
20260506183640 25 242 3.2 12.9 0.00 0.00 0.00 22 1011.3
20260506183539 25 272 3.2 12.9 0.00 0.00 0.00 22 1011.3
20260506183438 25 272 3.2 12.9 0.00 0.00 0.00 23 1011.3
20260506183331 25 238 3.2 12.9 0.00 0.00 0.00 24 1011.3
20260506183224 24 92 3.2 12.9 0.00 0.00 0.00 24 1011.2
20260506183126 25 315 3.2 12.9 0.00 0.00 0.00 24 1011.3
20260506183023 25 105 3.2 12.9 0.00 0.00 0.00 24 1011.4
20260506182917 25 110 3.2 12.9 0.00 0.00 0.00 24 1011.4
20260506182814 25 101 3.2 12.9 0.00 0.00 0.00 25 1011.4
20260506182718 25 85 3.2 12.9 0.00 0.00 0.00 25 1011.9
20260506182618 25 196 4.8 12.9 0.00 0.00 0.00 24 1011.9
20260506182510 25 178 3.2 12.9 0.00 0.00 0.00 24 1012.0
20260506182411 25 242 3.2 11.3 0.00 0.00 0.00 25 1012.0
20260506182314 25 115 3.2 11.3 0.00 0.00 0.00 25 1012.0
20260506182209 25 97 3.2 11.3 0.00 0.00 0.00 25 1012.0
20260506182108 25 108 3.2 11.3 0.00 0.00 0.00 26 1012.0
20260506182015 25 130 3.2 9.7 0.00 0.00 0.00 27 1011.9
20260506181911 25 221 3.2 9.7 0.00 0.00 0.00 27 1011.8
20260506181811 24 103 4.8 14.5 0.00 0.00 0.00 27 1011.8
20260506181711 24 169 3.2 14.5 0.00 0.00 0.00 28 1011.8
20260506181613 24 99 3.2 14.5 0.00 0.00 0.00 27 1011.8
20260506181511 24 234 3.2 14.5 0.00 0.00 0.00 28 1011.7
20260506181409 24 190 3.2 14.5 0.00 0.00 0.00 28 1011.6
20260506181249 23 229 3.2 14.5 0.00 0.00 0.00 29 1011.4
20260506181201 23 191 3.2 14.5 0.00 0.00 0.00 29 1011.9
20260506181047 23 124 3.2 14.5 0.00 0.00 0.00 29 1011.9
20260506180941 23 93 3.2 14.5 0.00 0.00 0.00 29 1011.9
20260506180840 23 70 1.6 14.5 0.00 0.00 0.00 29 1012.0
20260506180746 23 69 1.6 14.5 0.00 0.00 0.00 29 1012.1
20260506180640 23 19 1.6 14.5 0.00 0.00 0.00 29 1012.1
20260506180532 23 254 1.6 14.5 0.00 0.00 0.00 28 1012.1
20260506180433 24 236 1.6 14.5 0.00 0.00 0.00 28 1012.1
20260506180333 24 277 1.6 14.5 0.00 0.00 0.00 28 1012.1
20260506180222 24 323 1.6 14.5 0.00 0.00 0.00 29 1012.1
20260506180123 24 153 1.6 14.5 0.00 0.00 0.00 29 1012.1
20260506180013 23 169 1.6 14.5 0.00 0.00 0.00 30 1012.0
20260506175910 23 88 0.0 11.3 0.00 0.00 0.00 31 1011.9
20260506175812 23 85 0.0 8.0 0.00 0.00 0.00 33 1011.8
20260506175719 23 217 0.0 8.0 0.00 0.00 0.00 33 1011.8
20260506175615 23 333 1.6 11.3 0.00 0.00 0.00 31 1011.8
20260506175516 22 40 1.6 12.9 0.00 0.00 0.00 31 1011.8
20260506175414 23 41 1.6 12.9 0.00 0.00 0.00 31 1011.8
20260506175306 23 61 1.6 12.9 0.00 0.00 0.00 31 1011.8
20260506175157 23 331 3.2 12.9 0.00 0.00 0.00 30 1011.8
20260506175055 23 231 1.6 12.9 0.00 0.00 0.00 30 1011.8
20260506174955 23 278 3.2 12.9 0.00 0.00 0.00 30 1011.8
20260506174845 23 249 3.2 12.9 0.00 0.00 0.00 32 1011.8
20260506174747 23 262 3.2 12.9 0.00 0.00 0.00 32 1011.8
20260506174644 22 109 3.2 12.9 0.00 0.00 0.00 32 1011.8
20260506174545 22 23 3.2 12.9 0.00 0.00 0.00 30 1011.7
20260506174442 23 86 3.2 12.9 0.00 0.00 0.00 30 1011.8
20260506174338 23 134 3.2 12.9 0.00 0.00 0.00 31 1011.9
20260506174236 23 126 3.2 12.9 0.00 0.00 0.00 31 1011.9
20260506174141 23 104 3.2 16.1 0.00 0.00 0.00 33 1012.2
20260506174038 23 188 3.2 16.1 0.00 0.00 0.00 33 1012.1
20260506173939 23 233 3.2 16.1 0.00 0.00 0.00 32 1012.1
20260506173836 23 228 3.2 16.1 0.00 0.00 0.00 32 1012.2
20260506173741 23 178 1.6 16.1 0.00 0.00 0.00 32 1012.2
20260506173641 23 187 1.6 16.1 0.00 0.00 0.00 33 1012.1
20260506173530 23 151 1.6 16.1 0.00 0.00 0.00 33 1012.1
20260506173430 22 161 1.6 16.1 0.00 0.00 0.00 33 1012.0
20260506173334 22 165 1.6 16.1 0.00 0.00 0.00 33 1012.0
20260506173237 22 159 0.0 16.1 0.00 0.00 0.00 34 1011.9
20260506173122 22 69 0.0 9.7 0.00 0.00 0.00 35 1011.9
20260506173029 22 113 0.0 9.7 0.00 0.00 0.00 35 1011.8
20260506172929 22 82 0.0 6.4 0.00 0.00 0.00 34 1011.8
20260506172821 22 151 0.0 6.4 0.00 0.00 0.00 34 1011.7
20260506172713 22 77 0.0 6.4 0.00 0.00 0.00 36 1012.1
20260506172615 22 355 0.0 6.4 0.00 0.00 0.00 35 1012.0
20260506172511 21 57 0.0 6.4 0.00 0.00 0.00 35 1012.0
20260506172414 21 140 0.0 6.4 0.00 0.00 0.00 36 1012.0
20260506172316 21 74 0.0 6.4 0.00 0.00 0.00 35 1011.9
20260506172210 21 101 0.0 6.4 0.00 0.00 0.00 36 1011.9
20260506172116 21 35 0.0 6.4 0.00 0.00 0.00 36 1011.9
20260506171954 21 34 1.6 6.4 0.00 0.00 0.00 36 1011.8
20260506171851 21 82 1.6 6.4 0.00 0.00 0.00 37 1011.8
20260506171748 21 93 1.6 6.4 0.00 0.00 0.00 37 1011.8
20260506171637 21 73 1.6 6.4 0.00 0.00 0.00 35 1011.8
20260506171548 21 150 1.6 6.4 0.00 0.00 0.00 35 1011.8
20260506171446 21 155 1.6 6.4 0.00 0.00 0.00 37 1011.8
20260506171340 21 102 0.0 6.4 0.00 0.00 0.00 37 1011.8
20260506171234 21 44 0.0 4.8 0.00 0.00 0.00 37 1012.1
20260506171133 21 47 0.0 4.8 0.00 0.00 0.00 37 1012.0
20260506171038 21 83 0.0 4.8 0.00 0.00 0.00 36 1012.0
20260506170932 21 56 0.0 4.8 0.00 0.00 0.00 36 1012.0
20260506170834 21 103 0.0 6.4 0.00 0.00 0.00 36 1012.0
20260506170735 21 102 0.0 8.0 0.00 0.00 0.00 37 1012.0
20260506170626 21 86 1.6 8.0 0.00 0.00 0.00 38 1012.0
20260506170526 21 65 1.6 9.7 0.00 0.00 0.00 37 1012.0
20260506170423 20 336 1.6 9.7 0.00 0.00 0.00 36 1012.0
20260506170330 20 49 1.6 9.7 0.00 0.00 0.00 36 1012.0
20260506170214 20 295 1.6 9.7 0.00 0.00 0.00 36 1012.0
20260506170113 20 121 3.2 9.7 0.00 0.00 0.00 37 1011.9
20260506170013 20 117 3.2 9.7 0.00 0.00 0.00 38 1011.9
20260506165900 20 110 3.2 9.7 0.00 0.00 0.00 37 1011.8
20260506165804 20 149 3.2 9.7 0.00 0.00 0.00 37 1011.8
20260506165657 20 60 3.2 9.7 0.00 0.00 0.00 38 1011.8
20260506165553 20 130 3.2 8.0 0.00 0.00 0.00 38 1011.8
20260506165458 20 128 3.2 8.0 0.00 0.00 0.00 40 1011.8
20260506165356 20 96 3.2 8.0 0.00 0.00 0.00 40 1011.8
20260506165246 20 94 1.6 8.0 0.00 0.00 0.00 40 1011.8
20260506165151 20 90 1.6 8.0 0.00 0.00 0.00 41 1011.8
20260506165044 20 80 1.6 8.0 0.00 0.00 0.00 42 1011.8
20260506164946 20 80 1.6 8.0 0.00 0.00 0.00 42 1011.8
20260506164901 20 112 0.0 8.0 0.00 0.00 0.00 42 1011.8
20260506164750 20 46 0.0 8.0 0.00 0.00 0.00 43 1011.8
20260506164642 20 54 0.0 3.2 0.00 0.00 0.00 44 1011.7
20260506164538 20 83 0.0 6.4 0.00 0.00 0.00 42 1011.7
20260506164435 20 118 1.6 11.3 0.00 0.00 0.00 43 1011.7
20260506164333 20 96 1.6 11.3 0.00 0.00 0.00 43 1011.7
20260506164224 20 32 1.6 11.3 0.00 0.00 0.00 43 1011.7
20260506164114 20 76 1.6 11.3 0.00 0.00 0.00 44 1011.7
20260506164019 19 51 1.6 11.3 0.00 0.00 0.00 44 1011.7
20260506163912 19 311 1.6 11.3 0.00 0.00 0.00 43 1011.7
20260506163811 20 77 1.6 11.3 0.00 0.00 0.00 43 1011.7
20260506163713 20 59 1.6 11.3 0.00 0.00 0.00 44 1011.7
20260506163619 20 34 1.6 11.3 0.00 0.00 0.00 44 1011.8
20260506163512 20 61 1.6 11.3 0.00 0.00 0.00 43 1011.8
20260506163409 20 90 0.0 9.7 0.00 0.00 0.00 43 1011.8
20260506163309 20 65 0.0 4.8 0.00 0.00 0.00 43 1011.8
20260506163211 20 66 0.0 4.8 0.00 0.00 0.00 44 1011.8
20260506163041 20 67 0.0 6.4 0.00 0.00 0.00 44 1011.8
20260506162934 20 78 0.0 6.4 0.00 0.00 0.00 42 1011.8
20260506162840 20 328 0.0 6.4 0.00 0.00 0.00 43 1011.8
20260506162741 20 72 0.0 6.4 0.00 0.00 0.00 43 1012.2
20260506162628 20 74 0.0 6.4 0.00 0.00 0.00 43 1012.2
20260506162527 19 69 0.0 6.4 0.00 0.00 0.00 44 1012.1
20260506162411 19 50 0.0 6.4 0.00 0.00 0.00 43 1012.1
20260506162307 19 36 0.0 6.4 0.00 0.00 0.00 43 1012.1
20260506162205 19 17 0.0 6.4 0.00 0.00 0.00 43 1012.1
20260506162055 19 65 1.6 9.7 0.00 0.00 0.00 44 1012.0
20260506161952 19 342 1.6 9.7 0.00 0.00 0.00 44 1012.0
20260506161850 19 33 1.6 22.5 0.00 0.00 0.00 45 1012.0
20260506161749 19 75 1.6 22.5 0.00 0.00 0.00 45 1011.9
20260506161640 18 186 1.6 22.5 0.00 0.00 0.00 45 1011.8
20260506161530 18 179 1.6 22.5 0.00 0.00 0.00 45 1011.8
20260506161425 18 145 1.6 22.5 0.00 0.00 0.00 45 1011.8
20260506161327 18 83 1.6 22.5 0.00 0.00 0.00 45 1011.8
20260506161221 18 36 1.6 22.5 0.00 0.00 0.00 45 1011.8
20260506161116 18 76 1.6 22.5 0.00 0.00 0.00 47 1011.8
20260506161016 18 355 1.6 22.5 0.00 0.00 0.00 47 1011.7
20260506160908 18 118 0.0 17.7 0.00 0.00 0.00 47 1011.7
20260506160809 18 89 0.0 6.4 0.00 0.00 0.00 47 1011.7
20260506160711 18 115 0.0 6.4 0.00 0.00 0.00 47 1011.7
20260506160613 18 41 0.0 6.4 0.00 0.00 0.00 47 1011.7
20260506160456 18 67 0.0 6.4 0.00 0.00 0.00 46 1011.6
20260506160351 18 41 0.0 6.4 0.00 0.00 0.00 46 1011.6
20260506160249 18 61 0.0 6.4 0.00 0.00 0.00 45 1011.4
20260506160150 18 64 0.0 6.4 0.00 0.00 0.00 47 1011.6
20260506160039 18 348 0.0 6.4 0.00 0.00 0.00 49 1011.6
20260506155938 18 20 0.0 6.4 0.00 0.00 0.00 49 1011.4
20260506155839 17 52 0.0 6.4 0.00 0.00 0.00 49 1011.3
20260506155739 17 293 0.0 6.4 0.00 0.00 0.00 48 1011.6
20260506155631 17 249 0.0 6.4 0.00 0.00 0.00 48 1011.6
20260506155534 17 271 1.6 6.4 0.00 0.00 0.00 49 1011.6
20260506155428 17 303 1.6 6.4 0.00 0.00 0.00 49 1011.6
20260506155323 17 275 1.6 6.4 0.00 0.00 0.00 48 1011.6
20260506155228 17 317 1.6 8.0 0.00 0.00 0.00 48 1011.6
20260506155122 17 273 1.6 8.0 0.00 0.00 0.00 49 1011.6
20260506155025 17 301 1.6 8.0 0.00 0.00 0.00 49 1011.6
20260506154916 17 326 1.6 8.0 0.00 0.00 0.00 50 1011.6
20260506154817 17 39 1.6 8.0 0.00 0.00 0.00 50 1011.6
20260506154713 17 285 1.6 8.0 0.00 0.00 0.00 49 1011.4
20260506154616 17 326 1.6 8.0 0.00 0.00 0.00 48 1011.4
20260506154510 17 338 1.6 8.0 0.00 0.00 0.00 48 1011.6
20260506154415 17 329 1.6 8.0 0.00 0.00 0.00 48 1011.6
20260506154309 17 337 1.6 8.0 0.00 0.00 0.00 49 1011.6
20260506154204 17 307 1.6 8.0 0.00 0.00 0.00 48 1011.4
20260506154102 17 40 0.0 8.0 0.00 0.00 0.00 48 1011.4
20260506154008 17 330 0.0 8.0 0.00 0.00 0.00 51 1011.3
20260506153854 17 74 0.0 8.0 0.00 0.00 0.00 51 1011.3
20260506153745 17 261 1.6 8.0 0.00 0.00 0.00 50 1011.2
20260506153643 17 45 1.6 8.0 0.00 0.00 0.00 50 1011.1
20260506153541 17 43 1.6 8.0 0.00 0.00 0.00 50 1011.1
20260506153440 17 311 1.6 8.0 0.00 0.00 0.00 50 1011.1
20260506153340 17 302 1.6 6.4 0.00 0.00 0.00 50 1011.1
20260506153241 17 295 1.6 6.4 0.00 0.00 0.00 51 1011.2
20260506153141 17 11 1.6 6.4 0.00 0.00 0.00 50 1011.1
20260506153038 17 338 1.6 6.4 0.00 0.00 0.00 50 1011.1
20260506152942 17 319 1.6 6.4 0.00 0.00 0.00 50 1011.1
20260506152829 17 346 1.6 6.4 0.00 0.00 0.00 50 1011.1
20260506152725 17 321 1.6 8.0 0.00 0.00 0.00 50 1011.2
20260506152609 17 5 1.6 8.0 0.00 0.00 0.00 51 1011.2
20260506152511 17 321 1.6 8.0 0.00 0.00 0.00 50 1011.2
20260506152408 17 292 1.6 8.0 0.00 0.00 0.00 51 1011.3
20260506152316 17 289 0.0 8.0 0.00 0.00 0.00 51 1011.3
20260506152214 17 5 0.0 8.0 0.00 0.00 0.00 51 1011.2
20260506152110 17 29 0.0 8.0 0.00 0.00 0.00 51 1011.2
20260506152022 17 57 0.0 8.0 0.00 0.00 0.00 50 1011.2
20260506151904 17 28 0.0 8.0 0.00 0.00 0.00 51 1011.2
20260506151802 16 17 0.0 4.8 0.00 0.00 0.00 52 1011.2
20260506151650 16 69 0.0 4.8 0.00 0.00 0.00 52 1011.1